Time,TemperatureF,DewpointF,PressureIn,WindDirection,WindDirectionDegrees,WindSpeedMPH,WindSpeedGustMPH,Humidity,HourlyPrecipIn,Conditions,Clouds,dailyrainin,SoftwareType,DateUTC
2013-03-12 00:00:00,42.2,26.5,29.91,North,0,0.0,0.0,53,-99.99,,,-99.99,WSDL version 423,2013-03-12 05:00:00,
2013-03-12 00:02:00,42.2,26.5,29.91,WNW,293,0.0,0.0,53,-99.99,,,-99.99,WSDL version 423,2013-03-12 05:02:00,
2013-03-12 00:05:00,42.2,26.5,29.91,North,0,0.0,0.0,53,-99.99,,,-99.99,WSDL version 423,2013-03-12 05:05:00,
2013-03-12 00:06:00,42.2,26.5,29.91,North,0,0.0,0.0,53,-99.99,,,-99.99,WSDL version 423,2013-03-12 05:06:00,
2013-03-12 00:07:00,42.2,26.5,29.91,North,-999,-999.0,-999.0,53,-99.99,,,-99.99,WSDL version 423,2013-03-12 05:07:00,
2013-03-12 00:10:00,42.2,26.5,29.91,North,-999,-999.0,-999.0,53,-99.99,,,-99.99,WSDL version 423,2013-03-12 05:10:00,
2013-03-12 00:12:00,42.2,26.5,29.91,North,-999,-999.0,-999.0,53,-99.99,,,-99.99,WSDL version 423,2013-03-12 05:12:00,
2013-03-12 00:14:00,42.2,26.6,29.91,North,0,0.0,2.0,54,-99.99,,,-99.99,WSDL version 423,2013-03-12 05:14:00,
2013-03-12 00:16:00,42.1,26.5,29.91,North,0,0.0,2.0,53,-99.99,,,-99.99,WSDL version 423,2013-03-12 05:16:00,
2013-03-12 00:19:00,42.1,26.2,29.91,North,-999,-999.0,-999.0,52,-99.99,,,-99.99,WSDL version 423,2013-03-12 05:19:00,
2013-03-12 00:21:00,42.1,26.2,29.91,North,-999,-999.0,-999.0,53,-99.99,,,-99.99,WSDL version 423,2013-03-12 05:21:00,
2013-03-12 00:22:00,42.1,26.2,29.91,North,-999,-999.0,-999.0,53,-99.99,,,-99.99,WSDL version 423,2013-03-12 05:22:00,
2013-03-12 00:24:00,42.0,26.2,29.91,North,-999,-999.0,-999.0,52,-99.99,,,-99.99,WSDL version 423,2013-03-12 05:24:00,
2013-03-12 00:26:00,42.0,26.0,29.91,North,-999,-999.0,-999.0,52,-99.99,,,-99.99,WSDL version 423,2013-03-12 05:26:00,
2013-03-12 00:27:00,42.0,26.0,29.91,North,-999,-999.0,-999.0,52,-99.99,,,-99.99,WSDL version 423,2013-03-12 05:27:00,
2013-03-12 00:29:00,42.0,25.8,29.91,North,-999,-999.0,-999.0,52,-99.99,,,-99.99,WSDL version 423,2013-03-12 05:29:00,
2013-03-12 00:32:00,41.9,25.4,29.91,North,-999,-999.0,-999.0,52,-99.99,,,-99.99,WSDL version 423,2013-03-12 05:32:00,
2013-03-12 00:33:00,41.9,25.3,29.91,North,-999,-999.0,-999.0,52,-99.99,,,-99.99,WSDL version 423,2013-03-12 05:33:00,
2013-03-12 00:36:00,41.9,25.6,29.91,North,-999,-999.0,-999.0,52,-99.99,,,-99.99,WSDL version 423,2013-03-12 05:36:00,
2013-03-12 00:38:00,41.9,25.7,29.91,North,-999,-999.0,-999.0,52,-99.99,,,-99.99,WSDL version 423,2013-03-12 05:38:00,
2013-03-12 00:39:00,41.9,25.7,29.91,North,-999,-999.0,-999.0,52,-99.99,,,-99.99,WSDL version 423,2013-03-12 05:39:00,
2013-03-12 00:41:00,41.9,25.7,29.91,North,-999,-999.0,-999.0,52,-99.99,,,-99.99,WSDL version 423,2013-03-12 05:41:00,
2013-03-12 00:42:00,41.9,25.7,29.91,North,-999,-999.0,-999.0,52,-99.99,,,-99.99,WSDL version 423,2013-03-12 05:42:00,
2013-03-12 00:46:00,41.6,25.4,29.91,North,-999,-999.0,-999.0,52,-99.99,,,-99.99,WSDL version 423,2013-03-12 05:46:00,
2013-03-12 00:48:00,41.6,25.3,29.91,North,-999,-999.0,-999.0,52,-99.99,,,-99.99,WSDL version 423,2013-03-12 05:48:00,
2013-03-12 00:52:00,41.2,25.1,29.91,North,-999,-999.0,-999.0,52,-99.99,,,-99.99,WSDL version 423,2013-03-12 05:52:00,
2013-03-12 00:53:00,41.1,25.0,29.91,North,-999,-999.0,-999.0,52,-99.99,,,-99.99,WSDL version 423,2013-03-12 05:53:00,
2013-03-12 00:55:00,41.0,24.9,29.91,North,-999,-999.0,-999.0,52,-99.99,,,-99.99,WSDL version 423,2013-03-12 05:55:00,
2013-03-12 00:58:00,40.8,24.7,29.91,North,-999,-999.0,-999.0,52,-99.99,,,-99.99,WSDL version 423,2013-03-12 05:58:00,
2013-03-12 01:00:00,40.6,24.6,29.91,North,-999,-999.0,-999.0,52,-99.99,,,-99.99,WSDL version 423,2013-03-12 06:00:00,
2013-03-12 01:03:00,40.4,24.6,29.91,North,-999,-999.0,-999.0,53,-99.99,,,-99.99,WSDL version 423,2013-03-12 06:03:00,
2013-03-12 01:04:00,40.4,24.6,29.91,North,-999,-999.0,-999.0,53,-99.99,,,-99.99,WSDL version 423,2013-03-12 06:04:00,
2013-03-12 01:05:00,40.3,24.6,29.91,North,-999,-999.0,-999.0,53,-99.99,,,-99.99,WSDL version 423,2013-03-12 06:05:00,
2013-03-12 01:07:00,40.2,24.5,29.91,North,-999,-999.0,-999.0,53,-99.99,,,-99.99,WSDL version 423,2013-03-12 06:07:00,
2013-03-12 01:09:00,40.0,24.4,29.91,North,-999,-999.0,-999.0,53,-99.99,,,-99.99,WSDL version 423,2013-03-12 06:09:00,
2013-03-12 01:12:00,39.9,24.4,29.91,North,-999,-999.0,-999.0,54,-99.99,,,-99.99,WSDL version 423,2013-03-12 06:12:00,
2013-03-12 01:14:00,39.7,24.4,29.91,North,-999,-999.0,-999.0,54,-99.99,,,-99.99,WSDL version 423,2013-03-12 06:14:00,
2013-03-12 01:19:00,39.4,24.2,29.91,North,-999,-999.0,-999.0,54,-99.99,,,-99.99,WSDL version 423,2013-03-12 06:19:00,
2013-03-12 01:21:00,39.2,24.1,29.91,North,-999,-999.0,-999.0,54,-99.99,,,-99.99,WSDL version 423,2013-03-12 06:21:00,
2013-03-12 01:22:00,39.1,24.1,29.91,North,-999,-999.0,-999.0,55,-99.99,,,-99.99,WSDL version 423,2013-03-12 06:22:00,
2013-03-12 01:26:00,38.9,24.2,29.91,North,-999,-999.0,-999.0,55,-99.99,,,-99.99,WSDL version 423,2013-03-12 06:26:00,
2013-03-12 01:27:00,38.8,24.1,29.91,North,-999,-999.0,-999.0,55,-99.99,,,-99.99,WSDL version 423,2013-03-12 06:27:00,
2013-03-12 01:29:00,38.7,24.0,29.91,North,-999,-999.0,-999.0,55,-99.99,,,-99.99,WSDL version 423,2013-03-12 06:29:00,
2013-03-12 01:30:00,38.6,23.9,29.94,North,-999,-999.0,-999.0,55,-99.99,,,-99.99,WSDL version 423,2013-03-12 06:30:00,
2013-03-12 01:35:00,38.4,24.1,29.94,North,-999,-999.0,-999.0,56,-99.99,,,-99.99,WSDL version 423,2013-03-12 06:35:00,
2013-03-12 01:36:00,38.4,24.1,29.94,North,-999,-999.0,-999.0,56,-99.99,,,-99.99,WSDL version 423,2013-03-12 06:36:00,
2013-03-12 01:39:00,38.3,24.0,29.94,North,-999,-999.0,-999.0,56,-99.99,,,-99.99,WSDL version 423,2013-03-12 06:39:00,
2013-03-12 01:40:00,38.2,23.9,29.94,North,-999,-999.0,-999.0,56,-99.99,,,-99.99,WSDL version 423,2013-03-12 06:40:00,
2013-03-12 01:44:00,38.1,23.8,29.94,North,-999,-999.0,-999.0,56,-99.99,,,-99.99,WSDL version 423,2013-03-12 06:44:00,
2013-03-12 01:45:00,38.1,23.9,29.94,North,-999,-999.0,-999.0,57,-99.99,,,-99.99,WSDL version 423,2013-03-12 06:45:00,
2013-03-12 01:49:00,37.9,24.0,29.94,North,-999,-999.0,-999.0,57,-99.99,,,-99.99,WSDL version 423,2013-03-12 06:49:00,
2013-03-12 01:51:00,37.9,24.0,29.94,North,-999,-999.0,-999.0,57,-99.99,,,-99.99,WSDL version 423,2013-03-12 06:51:00,
2013-03-12 01:52:00,37.9,24.0,29.94,North,-999,-999.0,-999.0,57,-99.99,,,-99.99,WSDL version 423,2013-03-12 06:52:00,
2013-03-12 01:53:00,37.8,24.0,29.94,North,-999,-999.0,-999.0,57,-99.99,,,-99.99,WSDL version 423,2013-03-12 06:53:00,
2013-03-12 01:55:00,37.8,23.9,29.94,North,-999,-999.0,-999.0,57,-99.99,,,-99.99,WSDL version 423,2013-03-12 06:55:00,
2013-03-12 01:57:00,37.7,23.9,29.94,North,-999,-999.0,-999.0,58,-99.99,,,-99.99,WSDL version 423,2013-03-12 06:57:00,
2013-03-12 01:58:00,37.7,23.9,29.94,North,-999,-999.0,-999.0,58,-99.99,,,-99.99,WSDL version 423,2013-03-12 06:58:00,
2013-03-12 02:01:00,37.6,24.1,29.94,North,-999,-999.0,-999.0,58,-99.99,,,-99.99,WSDL version 423,2013-03-12 07:01:00,
2013-03-12 02:03:00,37.6,24.1,29.94,North,-999,-999.0,-999.0,58,-99.99,,,-99.99,WSDL version 423,2013-03-12 07:03:00,
2013-03-12 02:04:00,37.6,24.1,29.94,North,-999,-999.0,-999.0,58,-99.99,,,-99.99,WSDL version 423,2013-03-12 07:04:00,
2013-03-12 02:06:00,37.6,24.1,29.94,North,-999,-999.0,-999.0,58,-99.99,,,-99.99,WSDL version 423,2013-03-12 07:06:00,
2013-03-12 02:08:00,37.5,24.0,29.94,North,-999,-999.0,-999.0,58,-99.99,,,-99.99,WSDL version 423,2013-03-12 07:08:00,
2013-03-12 02:11:00,37.4,23.9,29.94,North,-999,-999.0,-999.0,58,-99.99,,,-99.99,WSDL version 423,2013-03-12 07:11:00,
2013-03-12 02:13:00,37.4,23.9,29.94,North,-999,-999.0,-999.0,58,-99.99,,,-99.99,WSDL version 423,2013-03-12 07:13:00,
2013-03-12 02:15:00,37.3,23.9,29.94,North,-999,-999.0,-999.0,58,-99.99,,,-99.99,WSDL version 423,2013-03-12 07:15:00,
2013-03-12 02:16:00,37.3,23.8,29.94,North,-999,-999.0,-999.0,58,-99.99,,,-99.99,WSDL version 423,2013-03-12 07:16:00,
2013-03-12 02:17:00,37.2,23.8,29.94,North,-999,-999.0,-999.0,58,-99.99,,,-99.99,WSDL version 423,2013-03-12 07:17:00,
2013-03-12 02:19:00,37.1,23.7,29.94,North,-999,-999.0,-999.0,58,-99.99,,,-99.99,WSDL version 423,2013-03-12 07:19:00,
2013-03-12 02:21:00,37.0,23.7,29.94,North,-999,-999.0,-999.0,59,-99.99,,,-99.99,WSDL version 423,2013-03-12 07:21:00,
2013-03-12 02:23:00,37.0,23.8,29.94,North,-999,-999.0,-999.0,59,-99.99,,,-99.99,WSDL version 423,2013-03-12 07:23:00,
2013-03-12 02:24:00,37.0,23.8,29.94,North,-999,-999.0,-999.0,59,-99.99,,,-99.99,WSDL version 423,2013-03-12 07:24:00,
2013-03-12 02:26:00,36.9,23.8,29.94,North,-999,-999.0,-999.0,59,-99.99,,,-99.99,WSDL version 423,2013-03-12 07:26:00,
2013-03-12 02:28:00,36.8,23.8,29.94,North,-999,-999.0,-999.0,59,-99.99,,,-99.99,WSDL version 423,2013-03-12 07:28:00,
2013-03-12 02:29:00,36.8,23.8,29.94,North,-999,-999.0,-999.0,59,-99.99,,,-99.99,WSDL version 423,2013-03-12 07:29:00,
2013-03-12 02:32:00,36.8,23.8,29.91,North,-999,-999.0,-999.0,59,-99.99,,,-99.99,WSDL version 423,2013-03-12 07:32:00,
2013-03-12 02:34:00,36.8,23.8,29.91,North,-999,-999.0,-999.0,59,-99.99,,,-99.99,WSDL version 423,2013-03-12 07:34:00,
2013-03-12 02:37:00,36.7,23.7,29.91,North,-999,-999.0,-999.0,59,-99.99,,,-99.99,WSDL version 423,2013-03-12 07:37:00,
2013-03-12 02:39:00,36.6,23.6,29.91,North,-999,-999.0,-999.0,59,-99.99,,,-99.99,WSDL version 423,2013-03-12 07:39:00,
2013-03-12 02:40:00,36.6,23.5,29.91,North,-999,-999.0,-999.0,59,-99.99,,,-99.99,WSDL version 423,2013-03-12 07:40:00,
2013-03-12 02:44:00,36.4,23.4,29.91,North,-999,-999.0,-999.0,59,-99.99,,,-99.99,WSDL version 423,2013-03-12 07:44:00,
2013-03-12 02:45:00,36.4,23.4,29.91,North,-999,-999.0,-999.0,60,-99.99,,,-99.99,WSDL version 423,2013-03-12 07:45:00,
2013-03-12 02:47:00,36.3,23.5,29.91,North,-999,-999.0,-999.0,60,-99.99,,,-99.99,WSDL version 423,2013-03-12 07:47:00,
2013-03-12 02:48:00,36.3,23.6,29.91,North,-999,-999.0,-999.0,60,-99.99,,,-99.99,WSDL version 423,2013-03-12 07:48:00,
2013-03-12 02:49:00,36.3,23.6,29.91,North,-999,-999.0,-999.0,60,-99.99,,,-99.99,WSDL version 423,2013-03-12 07:49:00,
2013-03-12 02:53:00,36.3,23.6,29.91,North,-999,-999.0,-999.0,60,-99.99,,,-99.99,WSDL version 423,2013-03-12 07:53:00,
2013-03-12 02:54:00,36.3,23.6,29.91,North,-999,-999.0,-999.0,60,-99.99,,,-99.99,WSDL version 423,2013-03-12 07:54:00,
2013-03-12 02:55:00,36.3,23.7,29.91,North,-999,-999.0,-999.0,61,-99.99,,,-99.99,WSDL version 423,2013-03-12 07:55:00,
2013-03-12 02:57:00,36.3,23.8,29.91,North,-999,-999.0,-999.0,61,-99.99,,,-99.99,WSDL version 423,2013-03-12 07:57:00,
2013-03-12 02:59:00,36.3,23.9,29.91,North,-999,-999.0,-999.0,61,-99.99,,,-99.99,WSDL version 423,2013-03-12 07:59:00,
2013-03-12 03:00:00,36.3,24.0,29.91,North,-999,-999.0,-999.0,61,-99.99,,,-99.99,WSDL version 423,2013-03-12 08:00:00,
2013-03-12 03:01:00,36.3,24.0,29.91,North,-999,-999.0,-999.0,61,-99.99,,,-99.99,WSDL version 423,2013-03-12 08:01:00,
2013-03-12 03:04:00,36.3,24.0,29.91,North,-999,-999.0,-999.0,61,-99.99,,,-99.99,WSDL version 423,2013-03-12 08:04:00,
2013-03-12 03:06:00,36.3,24.0,29.91,North,-999,-999.0,-999.0,61,-99.99,,,-99.99,WSDL version 423,2013-03-12 08:06:00,
2013-03-12 03:08:00,36.3,24.0,29.91,North,-999,-999.0,-999.0,61,-99.99,,,-99.99,WSDL version 423,2013-03-12 08:08:00,
2013-03-12 03:10:00,36.3,24.0,29.91,North,-999,-999.0,-999.0,61,-99.99,,,-99.99,WSDL version 423,2013-03-12 08:10:00,
2013-03-12 03:13:00,36.3,24.0,29.91,North,-999,-999.0,-999.0,61,-99.99,,,-99.99,WSDL version 423,2013-03-12 08:13:00,
2013-03-12 03:14:00,36.3,24.0,29.91,North,-999,-999.0,-999.0,61,-99.99,,,-99.99,WSDL version 423,2013-03-12 08:14:00,
2013-03-12 03:16:00,36.3,24.0,29.94,North,-999,-999.0,-999.0,61,-99.99,,,-99.99,WSDL version 423,2013-03-12 08:16:00,
2013-03-12 03:17:00,36.3,24.0,29.94,North,-999,-999.0,-999.0,61,-99.99,,,-99.99,WSDL version 423,2013-03-12 08:17:00,
2013-03-12 03:20:00,36.3,24.0,29.94,North,-999,-999.0,-999.0,62,-99.99,,,-99.99,WSDL version 423,2013-03-12 08:20:00,
2013-03-12 03:23:00,36.1,24.2,29.94,North,-999,-999.0,-999.0,62,-99.99,,,-99.99,WSDL version 423,2013-03-12 08:23:00,
2013-03-12 03:25:00,36.1,24.2,29.94,North,-999,-999.0,-999.0,62,-99.99,,,-99.99,WSDL version 423,2013-03-12 08:25:00,
2013-03-12 03:26:00,36.1,24.2,29.94,North,-999,-999.0,-999.0,62,-99.99,,,-99.99,WSDL version 423,2013-03-12 08:26:00,
2013-03-12 03:28:00,36.1,24.2,29.94,North,-999,-999.0,-999.0,62,-99.99,,,-99.99,WSDL version 423,2013-03-12 08:28:00,
2013-03-12 03:32:00,36.0,24.2,29.94,North,-999,-999.0,-999.0,62,-99.99,,,-99.99,WSDL version 423,2013-03-12 08:32:00,
2013-03-12 03:33:00,35.9,24.2,29.94,North,-999,-999.0,-999.0,62,-99.99,,,-99.99,WSDL version 423,2013-03-12 08:33:00,
2013-03-12 03:36:00,35.8,24.3,29.94,North,-999,-999.0,-999.0,62,-99.99,,,-99.99,WSDL version 423,2013-03-12 08:36:00,
2013-03-12 03:37:00,35.8,24.2,29.94,North,-999,-999.0,-999.0,62,-99.99,,,-99.99,WSDL version 423,2013-03-12 08:37:00,
2013-03-12 03:39:00,35.8,24.2,29.94,North,-999,-999.0,-999.0,62,-99.99,,,-99.99,WSDL version 423,2013-03-12 08:39:00,
2013-03-12 03:42:00,35.7,24.1,29.94,North,-999,-999.0,-999.0,62,-99.99,,,-99.99,WSDL version 423,2013-03-12 08:42:00,
2013-03-12 03:45:00,35.6,24.0,29.94,North,-999,-999.0,-999.0,62,-99.99,,,-99.99,WSDL version 423,2013-03-12 08:45:00,
2013-03-12 03:47:00,35.5,24.0,29.94,North,-999,-999.0,-999.0,62,-99.99,,,-99.99,WSDL version 423,2013-03-12 08:47:00,
2013-03-12 03:50:00,35.4,23.9,29.94,North,-999,-999.0,-999.0,62,-99.99,,,-99.99,WSDL version 423,2013-03-12 08:50:00,
2013-03-12 03:52:00,35.4,23.8,29.94,North,-999,-999.0,-999.0,62,-99.99,,,-99.99,WSDL version 423,2013-03-12 08:52:00,
2013-03-12 03:53:00,35.3,23.8,29.94,North,-999,-999.0,-999.0,62,-99.99,,,-99.99,WSDL version 423,2013-03-12 08:53:00,
2013-03-12 03:56:00,35.2,23.9,29.94,North,-999,-999.0,-999.0,63,-99.99,,,-99.99,WSDL version 423,2013-03-12 08:56:00,
2013-03-12 03:57:00,35.2,23.9,29.94,North,-999,-999.0,-999.0,63,-99.99,,,-99.99,WSDL version 423,2013-03-12 08:57:00,
2013-03-12 03:58:00,35.2,24.0,29.94,North,-999,-999.0,-999.0,63,-99.99,,,-99.99,WSDL version 423,2013-03-12 08:58:00,
2013-03-12 04:03:00,35.1,23.9,29.91,North,-999,-999.0,-999.0,63,-99.99,,,-99.99,WSDL version 423,2013-03-12 09:03:00,
2013-03-12 04:04:00,35.0,23.9,29.91,North,-999,-999.0,-999.0,63,-99.99,,,-99.99,WSDL version 423,2013-03-12 09:04:00,
2013-03-12 04:05:00,35.0,23.9,29.91,North,-999,-999.0,-999.0,63,-99.99,,,-99.99,WSDL version 423,2013-03-12 09:05:00,
2013-03-12 04:08:00,35.0,23.9,29.91,North,-999,-999.0,-999.0,64,-99.99,,,-99.99,WSDL version 423,2013-03-12 09:08:00,
2013-03-12 04:09:00,35.0,24.0,29.91,North,-999,-999.0,-999.0,64,-99.99,,,-99.99,WSDL version 423,2013-03-12 09:09:00,
2013-03-12 04:11:00,34.9,24.1,29.91,North,-999,-999.0,-999.0,64,-99.99,,,-99.99,WSDL version 423,2013-03-12 09:11:00,
2013-03-12 04:14:00,34.9,24.0,29.91,North,-999,-999.0,-999.0,64,-99.99,,,-99.99,WSDL version 423,2013-03-12 09:14:00,
2013-03-12 04:16:00,34.7,23.9,29.91,North,-999,-999.0,-999.0,64,-99.99,,,-99.99,WSDL version 423,2013-03-12 09:16:00,
2013-03-12 04:17:00,34.7,23.9,29.91,North,-999,-999.0,-999.0,64,-99.99,,,-99.99,WSDL version 423,2013-03-12 09:17:00,
2013-03-12 04:22:00,34.7,23.9,29.91,North,-999,-999.0,-999.0,64,-99.99,,,-99.99,WSDL version 423,2013-03-12 09:22:00,
2013-03-12 04:23:00,34.6,23.8,29.91,North,-999,-999.0,-999.0,64,-99.99,,,-99.99,WSDL version 423,2013-03-12 09:23:00,
2013-03-12 04:24:00,34.6,23.8,29.91,North,-999,-999.0,-999.0,64,-99.99,,,-99.99,WSDL version 423,2013-03-12 09:24:00,
2013-03-12 04:25:00,34.6,23.7,29.91,North,-999,-999.0,-999.0,64,-99.99,,,-99.99,WSDL version 423,2013-03-12 09:25:00,
2013-03-12 04:29:00,34.5,23.7,29.91,North,-999,-999.0,-999.0,64,-99.99,,,-99.99,WSDL version 423,2013-03-12 09:29:00,
2013-03-12 04:30:00,34.5,23.7,29.91,North,-999,-999.0,-999.0,64,-99.99,,,-99.99,WSDL version 423,2013-03-12 09:30:00,
2013-03-12 04:32:00,34.5,23.7,29.91,North,-999,-999.0,-999.0,64,-99.99,,,-99.99,WSDL version 423,2013-03-12 09:32:00,
2013-03-12 04:33:00,34.5,23.7,29.91,North,-999,-999.0,-999.0,64,-99.99,,,-99.99,WSDL version 423,2013-03-12 09:33:00,
2013-03-12 04:34:00,34.5,23.7,29.91,North,-999,-999.0,-999.0,64,-99.99,,,-99.99,WSDL version 423,2013-03-12 09:34:00,
2013-03-12 04:38:00,34.5,23.9,29.91,North,-999,-999.0,-999.0,65,-99.99,,,-99.99,WSDL version 423,2013-03-12 09:38:00,
2013-03-12 04:39:00,34.5,24.0,29.91,North,-999,-999.0,-999.0,65,-99.99,,,-99.99,WSDL version 423,2013-03-12 09:39:00,
2013-03-12 04:41:00,34.4,23.9,29.91,North,-999,-999.0,-999.0,65,-99.99,,,-99.99,WSDL version 423,2013-03-12 09:41:00,
2013-03-12 04:43:00,34.4,23.9,29.91,North,-999,-999.0,-999.0,65,-99.99,,,-99.99,WSDL version 423,2013-03-12 09:43:00,
2013-03-12 04:46:00,34.3,23.9,29.94,North,-999,-999.0,-999.0,65,-99.99,,,-99.99,WSDL version 423,2013-03-12 09:46:00,
2013-03-12 04:48:00,34.3,24.0,29.94,North,-999,-999.0,-999.0,66,-99.99,,,-99.99,WSDL version 423,2013-03-12 09:48:00,
2013-03-12 04:50:00,34.3,24.1,29.94,North,-999,-999.0,-999.0,66,-99.99,,,-99.99,WSDL version 423,2013-03-12 09:50:00,
2013-03-12 04:53:00,34.2,24.1,29.94,North,-999,-999.0,-999.0,66,-99.99,,,-99.99,WSDL version 423,2013-03-12 09:53:00,
2013-03-12 04:54:00,34.2,24.1,29.94,North,-999,-999.0,-999.0,66,-99.99,,,-99.99,WSDL version 423,2013-03-12 09:54:00,
2013-03-12 04:55:00,34.1,24.0,29.94,North,-999,-999.0,-999.0,66,-99.99,,,-99.99,WSDL version 423,2013-03-12 09:55:00,
2013-03-12 04:57:00,34.1,24.0,29.94,North,-999,-999.0,-999.0,66,-99.99,,,-99.99,WSDL version 423,2013-03-12 09:57:00,
2013-03-12 04:59:00,34.1,24.0,29.94,North,-999,-999.0,-999.0,66,-99.99,,,-99.99,WSDL version 423,2013-03-12 09:59:00,
2013-03-12 05:01:00,34.1,24.1,29.94,North,-999,-999.0,-999.0,67,-99.99,,,-99.99,WSDL version 423,2013-03-12 10:01:00,
2013-03-12 05:03:00,34.2,24.3,29.94,North,-999,-999.0,-999.0,67,-99.99,,,-99.99,WSDL version 423,2013-03-12 10:03:00,
2013-03-12 05:06:00,34.4,24.6,29.94,North,-999,-999.0,-999.0,67,-99.99,,,-99.99,WSDL version 423,2013-03-12 10:06:00,
2013-03-12 05:09:00,34.5,24.7,29.94,North,-999,-999.0,-999.0,67,-99.99,,,-99.99,WSDL version 423,2013-03-12 10:09:00,
2013-03-12 05:11:00,34.6,24.8,29.94,North,-999,-999.0,-999.0,67,-99.99,,,-99.99,WSDL version 423,2013-03-12 10:11:00,
2013-03-12 05:12:00,34.6,24.8,29.94,North,-999,-999.0,-999.0,67,-99.99,,,-99.99,WSDL version 423,2013-03-12 10:12:00,
2013-03-12 05:14:00,34.7,24.9,29.94,North,-999,-999.0,-999.0,67,-99.99,,,-99.99,WSDL version 423,2013-03-12 10:14:00,
2013-03-12 05:17:00,34.7,24.9,29.94,North,-999,-999.0,-999.0,67,-99.99,,,-99.99,WSDL version 423,2013-03-12 10:17:00,
2013-03-12 05:20:00,34.7,24.9,29.94,North,-999,-999.0,-999.0,67,-99.99,,,-99.99,WSDL version 423,2013-03-12 10:20:00,
2013-03-12 05:21:00,34.6,24.8,29.94,North,-999,-999.0,-999.0,67,-99.99,,,-99.99,WSDL version 423,2013-03-12 10:21:00,
2013-03-12 05:22:00,34.6,24.7,29.94,North,-999,-999.0,-999.0,67,-99.99,,,-99.99,WSDL version 423,2013-03-12 10:22:00,
2013-03-12 05:23:00,34.5,24.7,29.94,North,-999,-999.0,-999.0,67,-99.99,,,-99.99,WSDL version 423,2013-03-12 10:23:00,
2013-03-12 05:25:00,34.5,24.7,29.94,North,-999,-999.0,-999.0,67,-99.99,,,-99.99,WSDL version 423,2013-03-12 10:25:00,
2013-03-12 05:29:00,34.4,24.5,29.94,North,-999,-999.0,-999.0,66,-99.99,,,-99.99,WSDL version 423,2013-03-12 10:29:00,
2013-03-12 05:30:00,34.3,24.4,29.94,North,-999,-999.0,-999.0,67,-99.99,,,-99.99,WSDL version 423,2013-03-12 10:30:00,
2013-03-12 05:31:00,34.3,24.4,29.94,North,-999,-999.0,-999.0,67,-99.99,,,-99.99,WSDL version 423,2013-03-12 10:31:00,
2013-03-12 05:33:00,34.2,24.4,29.94,North,-999,-999.0,-999.0,67,-99.99,,,-99.99,WSDL version 423,2013-03-12 10:33:00,
2013-03-12 05:37:00,34.1,24.3,29.94,North,-999,-999.0,-999.0,67,-99.99,,,-99.99,WSDL version 423,2013-03-12 10:37:00,
2013-03-12 05:39:00,34.0,24.2,29.94,North,-999,-999.0,-999.0,67,-99.99,,,-99.99,WSDL version 423,2013-03-12 10:39:00,
2013-03-12 05:43:00,33.8,24.0,29.94,North,-999,-999.0,-999.0,67,-99.99,,,-99.99,WSDL version 423,2013-03-12 10:43:00,
2013-03-12 05:44:00,33.8,24.0,29.94,North,-999,-999.0,-999.0,67,-99.99,,,-99.99,WSDL version 423,2013-03-12 10:44:00,
2013-03-12 05:45:00,33.8,24.0,29.94,North,-999,-999.0,-999.0,67,-99.99,,,-99.99,WSDL version 423,2013-03-12 10:45:00,
2013-03-12 05:49:00,33.7,24.2,29.94,North,-999,-999.0,-999.0,68,-99.99,,,-99.99,WSDL version 423,2013-03-12 10:49:00,
2013-03-12 05:50:00,33.7,24.2,29.94,North,-999,-999.0,-999.0,68,-99.99,,,-99.99,WSDL version 423,2013-03-12 10:50:00,
2013-03-12 05:52:00,33.6,24.1,29.94,North,-999,-999.0,-999.0,68,-99.99,,,-99.99,WSDL version 423,2013-03-12 10:52:00,
2013-03-12 05:55:00,33.5,24.1,29.94,North,-999,-999.0,-999.0,68,-99.99,,,-99.99,WSDL version 423,2013-03-12 10:55:00,
2013-03-12 05:56:00,33.4,24.0,29.94,North,-999,-999.0,-999.0,68,-99.99,,,-99.99,WSDL version 423,2013-03-12 10:56:00,
2013-03-12 05:58:00,33.2,23.8,29.94,North,-999,-999.0,-999.0,68,-99.99,,,-99.99,WSDL version 423,2013-03-12 10:58:00,
2013-03-12 06:01:00,32.9,23.5,29.94,North,-999,-999.0,-999.0,68,-99.99,,,-99.99,WSDL version 423,2013-03-12 11:01:00,
2013-03-12 06:02:00,32.9,23.5,29.94,North,-999,-999.0,-999.0,68,-99.99,,,-99.99,WSDL version 423,2013-03-12 11:02:00,
2013-03-12 06:03:00,32.9,23.5,29.94,North,-999,-999.0,-999.0,68,-99.99,,,-99.99,WSDL version 423,2013-03-12 11:03:00,
2013-03-12 06:07:00,32.8,23.7,29.94,North,-999,-999.0,-999.0,70,-99.99,,,-99.99,WSDL version 423,2013-03-12 11:07:00,
2013-03-12 06:09:00,32.7,23.8,29.94,North,-999,-999.0,-999.0,70,-99.99,,,-99.99,WSDL version 423,2013-03-12 11:09:00,
2013-03-12 06:11:00,32.7,23.9,29.94,North,-999,-999.0,-999.0,70,-99.99,,,-99.99,WSDL version 423,2013-03-12 11:11:00,
2013-03-12 06:13:00,32.7,23.9,29.94,North,-999,-999.0,-999.0,70,-99.99,,,-99.99,WSDL version 423,2013-03-12 11:13:00,
2013-03-12 06:14:00,32.7,23.9,29.94,North,-999,-999.0,-999.0,70,-99.99,,,-99.99,WSDL version 423,2013-03-12 11:14:00,
2013-03-12 06:15:00,32.7,23.9,29.97,North,-999,-999.0,-999.0,70,-99.99,,,-99.99,WSDL version 423,2013-03-12 11:15:00,
2013-03-12 06:19:00,32.7,23.9,29.97,North,-999,-999.0,-999.0,70,-99.99,,,-99.99,WSDL version 423,2013-03-12 11:19:00,
2013-03-12 06:20:00,32.7,23.9,29.97,North,-999,-999.0,-999.0,70,-99.99,,,-99.99,WSDL version 423,2013-03-12 11:20:00,
2013-03-12 06:24:00,32.6,23.8,29.97,North,-999,-999.0,-999.0,70,-99.99,,,-99.99,WSDL version 423,2013-03-12 11:24:00,
2013-03-12 06:25:00,32.5,23.7,29.97,North,-999,-999.0,-999.0,70,-99.99,,,-99.99,WSDL version 423,2013-03-12 11:25:00,
2013-03-12 06:26:00,32.6,23.8,29.97,North,-999,-999.0,-999.0,70,-99.99,,,-99.99,WSDL version 423,2013-03-12 11:26:00,
2013-03-12 06:27:00,32.6,23.9,29.97,North,-999,-999.0,-999.0,70,-99.99,,,-99.99,WSDL version 423,2013-03-12 11:27:00,
2013-03-12 06:30:00,32.6,23.8,29.97,North,-999,-999.0,-999.0,70,-99.99,,,-99.99,WSDL version 423,2013-03-12 11:30:00,
2013-03-12 06:34:00,32.5,24.1,29.97,North,-999,-999.0,-999.0,71,-99.99,,,-99.99,WSDL version 423,2013-03-12 11:34:00,
2013-03-12 06:35:00,32.5,24.1,29.97,North,-999,-999.0,-999.0,71,-99.99,,,-99.99,WSDL version 423,2013-03-12 11:35:00,
2013-03-12 06:37:00,32.5,24.1,29.97,North,-999,-999.0,-999.0,71,-99.99,,,-99.99,WSDL version 423,2013-03-12 11:37:00,
2013-03-12 06:39:00,32.5,24.1,29.97,North,-999,-999.0,-999.0,71,-99.99,,,-99.99,WSDL version 423,2013-03-12 11:39:00,
2013-03-12 06:41:00,32.5,24.1,29.97,North,-999,-999.0,-999.0,71,-99.99,,,-99.99,WSDL version 423,2013-03-12 11:41:00,
2013-03-12 06:42:00,32.3,23.9,29.97,North,-999,-999.0,-999.0,71,-99.99,,,-99.99,WSDL version 423,2013-03-12 11:42:00,
2013-03-12 06:45:00,32.2,23.7,29.97,North,-999,-999.0,-999.0,71,-99.99,,,-99.99,WSDL version 423,2013-03-12 11:45:00,
2013-03-12 06:46:00,32.2,23.7,29.97,North,-999,-999.0,-999.0,71,-99.99,,,-99.99,WSDL version 423,2013-03-12 11:46:00,
2013-03-12 06:50:00,32.0,24.8,29.97,North,-999,-999.0,-999.0,72,-99.99,,,-99.99,WSDL version 423,2013-03-12 11:50:00,
2013-03-12 06:51:00,31.9,24.7,29.97,North,-999,-999.0,-999.0,72,-99.99,,,-99.99,WSDL version 423,2013-03-12 11:51:00,
2013-03-12 06:52:00,31.9,24.7,29.97,North,-999,-999.0,-999.0,72,-99.99,,,-99.99,WSDL version 423,2013-03-12 11:52:00,
2013-03-12 06:55:00,31.7,24.5,29.97,North,-999,-999.0,-999.0,72,-99.99,,,-99.99,WSDL version 423,2013-03-12 11:55:00,
2013-03-12 06:57:00,31.7,24.5,29.97,North,-999,-999.0,-999.0,72,-99.99,,,-99.99,WSDL version 423,2013-03-12 11:57:00,
2013-03-12 06:58:00,31.6,24.4,29.97,North,-999,-999.0,-999.0,72,-99.99,,,-99.99,WSDL version 423,2013-03-12 11:58:00,
2013-03-12 07:00:00,31.5,24.3,29.97,North,-999,-999.0,-999.0,72,-99.99,,,-99.99,WSDL version 423,2013-03-12 12:00:00,
2013-03-12 07:03:00,31.4,24.4,29.97,North,-999,-999.0,-999.0,72,-99.99,,,-99.99,WSDL version 423,2013-03-12 12:03:00,
2013-03-12 07:04:00,31.4,24.5,29.97,North,-999,-999.0,-999.0,73,-99.99,,,-99.99,WSDL version 423,2013-03-12 12:04:00,
2013-03-12 07:09:00,31.4,24.8,29.97,North,-999,-999.0,-999.0,73,-99.99,,,-99.99,WSDL version 423,2013-03-12 12:09:00,
2013-03-12 07:10:00,31.4,24.8,29.97,North,-999,-999.0,-999.0,73,-99.99,,,-99.99,WSDL version 423,2013-03-12 12:10:00,
2013-03-12 07:11:00,31.4,24.8,29.97,North,-999,-999.0,-999.0,73,-99.99,,,-99.99,WSDL version 423,2013-03-12 12:11:00,
2013-03-12 07:12:00,31.4,24.8,29.97,North,-999,-999.0,-999.0,73,-99.99,,,-99.99,WSDL version 423,2013-03-12 12:12:00,
2013-03-12 07:16:00,31.4,24.8,29.97,North,-999,-999.0,-999.0,73,-99.99,,,-99.99,WSDL version 423,2013-03-12 12:16:00,
2013-03-12 07:17:00,-999.0,-99.9,29.97,North,-999,-999.0,-999.0,-999,-99.99,,,-99.99,WSDL version 423,2013-03-12 12:17:00,
2013-03-12 07:22:00,-999.0,-99.9,29.97,North,-999,-999.0,-999.0,-999,-99.99,,,-99.99,WSDL version 423,2013-03-12 12:22:00,
2013-03-12 07:23:00,-999.0,-99.9,29.97,North,-999,-999.0,-999.0,-999,-99.99,,,-99.99,WSDL version 423,2013-03-12 12:23:00,
2013-03-12 07:26:00,31.4,24.8,29.97,North,-999,-999.0,-999.0,73,-99.99,,,-99.99,WSDL version 423,2013-03-12 12:26:00,
2013-03-12 07:27:00,31.5,24.8,29.97,North,-999,-999.0,-999.0,73,-99.99,,,-99.99,WSDL version 423,2013-03-12 12:27:00,
2013-03-12 07:29:00,31.5,24.9,29.97,North,-999,-999.0,-999.0,73,-99.99,,,-99.99,WSDL version 423,2013-03-12 12:29:00,
2013-03-12 07:30:00,31.6,25.0,30.00,West,270,0.7,2.5,74,-99.99,,,-99.99,WSDL version 423,2013-03-12 12:30:00,
2013-03-12 07:31:00,31.7,25.2,30.00,West,270,0.7,2.5,74,-99.99,,,-99.99,WSDL version 423,2013-03-12 12:31:00,
2013-03-12 07:32:00,31.9,25.5,30.00,North,0,0.0,2.5,74,-99.99,,,-99.99,WSDL version 423,2013-03-12 12:32:00,
2013-03-12 07:34:00,31.9,25.5,30.00,North,0,0.0,2.5,74,-99.99,,,-99.99,WSDL version 423,2013-03-12 12:34:00,
2013-03-12 07:36:00,32.0,25.4,30.00,North,-999,-999.0,-999.0,74,-99.99,,,-99.99,WSDL version 423,2013-03-12 12:36:00,
2013-03-12 07:38:00,32.1,25.2,30.00,North,-999,-999.0,-999.0,74,-99.99,,,-99.99,WSDL version 423,2013-03-12 12:38:00,
2013-03-12 07:39:00,32.1,25.1,30.00,North,-999,-999.0,-999.0,74,-99.99,,,-99.99,WSDL version 423,2013-03-12 12:39:00,
2013-03-12 07:41:00,32.2,25.0,30.00,North,-999,-999.0,-999.0,75,-99.99,,,-99.99,WSDL version 423,2013-03-12 12:41:00,
2013-03-12 07:46:00,32.5,25.5,30.00,North,-999,-999.0,-999.0,75,-99.99,,,-99.99,WSDL version 423,2013-03-12 12:46:00,
2013-03-12 07:47:00,32.6,25.6,30.00,North,-999,-999.0,-999.0,75,-99.99,,,-99.99,WSDL version 423,2013-03-12 12:47:00,
2013-03-12 07:49:00,32.7,25.7,30.00,North,-999,-999.0,-999.0,75,-99.99,,,-99.99,WSDL version 423,2013-03-12 12:49:00,
2013-03-12 07:52:00,32.9,25.9,30.00,North,-999,-999.0,-999.0,75,-99.99,,,-99.99,WSDL version 423,2013-03-12 12:52:00,
2013-03-12 07:53:00,32.9,25.9,30.00,North,-999,-999.0,-999.0,75,-99.99,,,-99.99,WSDL version 423,2013-03-12 12:53:00,
2013-03-12 07:55:00,33.1,26.1,30.00,North,-999,-999.0,-999.0,75,-99.99,,,-99.99,WSDL version 423,2013-03-12 12:55:00,
2013-03-12 07:57:00,33.3,26.3,30.00,North,-999,-999.0,-999.0,75,-99.99,,,-99.99,WSDL version 423,2013-03-12 12:57:00,
2013-03-12 07:58:00,33.4,26.4,30.00,WSW,248,0.0,0.0,75,-99.99,,,-99.99,WSDL version 423,2013-03-12 12:58:00,
2013-03-12 07:59:00,33.5,26.5,30.00,WSW,248,0.0,0.0,75,-99.99,,,-99.99,WSDL version 423,2013-03-12 12:59:00,
2013-03-12 08:03:00,34.1,27.1,30.00,North,0,0.0,0.0,75,-99.99,,,-99.99,WSDL version 423,2013-03-12 13:03:00,
2013-03-12 08:04:00,34.2,27.2,30.00,SW,236,0.0,0.0,75,-99.99,,,-99.99,WSDL version 423,2013-03-12 13:04:00,
2013-03-12 08:05:00,34.3,27.3,30.00,SW,236,0.0,0.0,75,-99.99,,,-99.99,WSDL version 423,2013-03-12 13:05:00,
2013-03-12 08:08:00,34.8,27.7,30.00,North,0,0.0,0.0,75,-99.99,,,-99.99,WSDL version 423,2013-03-12 13:08:00,
2013-03-12 08:10:00,35.0,28.0,30.00,North,-999,-999.0,-999.0,75,-99.99,,,-99.99,WSDL version 423,2013-03-12 13:10:00,
2013-03-12 08:12:00,35.3,28.3,30.00,North,-999,-999.0,-999.0,75,-99.99,,,-99.99,WSDL version 423,2013-03-12 13:12:00,
2013-03-12 08:15:00,35.7,28.6,30.00,North,-999,-999.0,-999.0,75,-99.99,,,-99.99,WSDL version 423,2013-03-12 13:15:00,
2013-03-12 08:20:00,36.2,29.2,30.00,West,270,0.0,1.6,75,-99.99,,,-99.99,WSDL version 423,2013-03-12 13:20:00,
2013-03-12 08:21:00,36.3,29.3,30.00,North,0,0.0,1.6,75,-99.99,,,-99.99,WSDL version 423,2013-03-12 13:21:00,
2013-03-12 08:24:00,36.6,29.3,30.00,North,-999,-999.0,-999.0,74,-99.99,,,-99.99,WSDL version 423,2013-03-12 13:24:00,
2013-03-12 08:26:00,36.8,29.4,30.00,North,-999,-999.0,-999.0,74,-99.99,,,-99.99,WSDL version 423,2013-03-12 13:26:00,
2013-03-12 08:28:00,37.0,29.6,30.00,North,-999,-999.0,-999.0,74,-99.99,,,-99.99,WSDL version 423,2013-03-12 13:28:00,
2013-03-12 08:30:00,37.5,30.0,30.03,North,-999,-999.0,-999.0,74,-99.99,,,-99.99,WSDL version 423,2013-03-12 13:30:00,
2013-03-12 08:31:00,38.1,30.7,30.03,North,-999,-999.0,-999.0,74,-99.99,,,-99.99,WSDL version 423,2013-03-12 13:31:00,
2013-03-12 08:35:00,38.3,30.8,30.03,North,-999,-999.0,-999.0,74,-99.99,,,-99.99,WSDL version 423,2013-03-12 13:35:00,
2013-03-12 08:36:00,-999.0,-99.9,30.03,North,-999,-999.0,-999.0,-999,-99.99,,,-99.99,WSDL version 423,2013-03-12 13:36:00,
2013-03-12 08:38:00,-999.0,-99.9,30.03,North,-999,-999.0,-999.0,-999,-99.99,,,-99.99,WSDL version 423,2013-03-12 13:38:00,
2013-03-12 08:40:00,-999.0,-99.9,30.03,North,-999,-999.0,-999.0,-999,-99.99,,,-99.99,WSDL version 423,2013-03-12 13:40:00,
2013-03-12 08:41:00,-999.0,-99.9,30.03,North,-999,-999.0,-999.0,-999,-99.99,,,-99.99,WSDL version 423,2013-03-12 13:41:00,
2013-03-12 09:35:00,46.5,26.2,30.03,North,-999,-999.0,-999.0,44,-99.99,,,-99.99,WSDL version 423,2013-03-12 14:35:00,
2013-03-12 09:36:00,46.4,25.9,30.03,North,-999,-999.0,-999.0,43,-99.99,,,-99.99,WSDL version 423,2013-03-12 14:36:00,
2013-03-12 09:40:00,45.7,24.3,30.03,North,-999,-999.0,-999.0,43,-99.99,,,-99.99,WSDL version 423,2013-03-12 14:40:00,
2013-03-12 09:41:00,45.6,24.2,30.03,North,-999,-999.0,-999.0,43,-99.99,,,-99.99,WSDL version 423,2013-03-12 14:41:00,
2013-03-12 09:45:00,46.1,25.5,30.03,North,-999,-999.0,-999.0,44,-99.99,,,-99.99,WSDL version 423,2013-03-12 14:45:00,
2013-03-12 09:46:00,46.2,25.6,30.03,West,270,2.5,2.5,44,-99.99,,,-99.99,WSDL version 423,2013-03-12 14:46:00,
2013-03-12 09:47:00,46.3,25.7,30.03,West,270,2.5,2.5,44,-99.99,,,-99.99,WSDL version 423,2013-03-12 14:47:00,
2013-03-12 09:48:00,46.5,26.0,30.03,North,0,0.0,1.3,45,-99.99,,,-99.99,WSDL version 423,2013-03-12 14:48:00,
2013-03-12 09:51:00,47.2,26.5,30.03,North,-999,-999.0,-999.0,44,-99.99,,,-99.99,WSDL version 423,2013-03-12 14:51:00,
2013-03-12 09:53:00,47.6,26.1,30.03,North,-999,-999.0,-999.0,41,-99.99,,,-99.99,WSDL version 423,2013-03-12 14:53:00,
2013-03-12 09:57:00,48.4,26.7,30.03,North,0,0.0,1.6,43,-99.99,,,-99.99,WSDL version 423,2013-03-12 14:57:00,
2013-03-12 09:59:00,48.9,27.2,30.03,North,-999,-999.0,-999.0,42,-99.99,,,-99.99,WSDL version 423,2013-03-12 14:59:00,
2013-03-12 10:01:00,49.3,27.5,30.03,North,-999,-999.0,-999.0,42,-99.99,,,-99.99,WSDL version 423,2013-03-12 15:01:00,
2013-03-12 10:05:00,49.7,27.1,30.03,North,-999,-999.0,-999.0,38,-99.99,,,-99.99,WSDL version 423,2013-03-12 15:05:00,
2013-03-12 10:06:00,49.7,26.2,30.03,North,-999,-999.0,-999.0,38,-99.99,,,-99.99,WSDL version 423,2013-03-12 15:06:00,
2013-03-12 10:07:00,49.8,25.9,30.03,North,-999,-999.0,-999.0,39,-99.99,,,-99.99,WSDL version 423,2013-03-12 15:07:00,
2013-03-12 10:11:00,50.4,26.5,30.03,West,270,2.7,2.7,39,-99.99,,,-99.99,WSDL version 423,2013-03-12 15:11:00,
2013-03-12 10:12:00,50.5,26.7,30.03,North,0,0.0,1.1,39,-99.99,,,-99.99,WSDL version 423,2013-03-12 15:12:00,
2013-03-12 10:13:00,50.6,26.4,30.03,North,0,0.0,1.1,38,-99.99,,,-99.99,WSDL version 423,2013-03-12 15:13:00,
2013-03-12 10:31:00,51.6,25.1,30.06,North,-999,-999.0,-999.0,36,-99.99,,,-99.99,WSDL version 423,2013-03-12 15:31:00,
2013-03-12 10:33:00,51.9,25.3,30.06,North,-999,-999.0,-999.0,35,-99.99,,,-99.99,WSDL version 423,2013-03-12 15:33:00,
2013-03-12 10:58:00,55.3,26.7,30.03,North,-999,-999.0,-999.0,33,-99.99,,,-99.99,WSDL version 423,2013-03-12 15:58:00,
2013-03-12 11:03:00,56.1,26.8,30.03,North,0,0.0,1.6,32,-99.99,,,-99.99,WSDL version 423,2013-03-12 16:03:00,
2013-03-12 11:04:00,56.6,27.1,30.03,North,0,0.0,1.6,32,-99.99,,,-99.99,WSDL version 423,2013-03-12 16:04:00,
2013-03-12 11:06:00,57.2,27.6,30.03,North,-999,-999.0,-999.0,32,-99.99,,,-99.99,WSDL version 423,2013-03-12 16:06:00,
2013-03-12 11:11:00,57.5,27.4,30.03,North,-999,-999.0,-999.0,31,-99.99,,,-99.99,WSDL version 423,2013-03-12 16:11:00,
2013-03-12 11:12:00,57.5,27.3,30.03,North,-999,-999.0,-999.0,32,-99.99,,,-99.99,WSDL version 423,2013-03-12 16:12:00,
2013-03-12 11:14:00,57.7,27.4,30.03,North,-999,-999.0,-999.0,31,-99.99,,,-99.99,WSDL version 423,2013-03-12 16:14:00,
2013-03-12 11:17:00,58.3,27.8,30.06,North,-999,-999.0,-999.0,31,-99.99,,,-99.99,WSDL version 423,2013-03-12 16:17:00,
2013-03-12 11:18:00,58.3,27.8,30.06,North,-999,-999.0,-999.0,31,-99.99,,,-99.99,WSDL version 423,2013-03-12 16:18:00,
2013-03-12 11:19:00,58.4,27.9,30.06,North,-999,-999.0,-999.0,31,-99.99,,,-99.99,WSDL version 423,2013-03-12 16:19:00,
2013-03-12 11:23:00,59.0,28.4,30.06,North,-999,-999.0,-999.0,31,-99.99,,,-99.99,WSDL version 423,2013-03-12 16:23:00,
2013-03-12 11:25:00,59.5,28.7,30.06,North,-999,-999.0,-999.0,30,-99.99,,,-99.99,WSDL version 423,2013-03-12 16:25:00,
2013-03-12 11:26:00,59.7,28.9,30.06,North,-999,-999.0,-999.0,31,-99.99,,,-99.99,WSDL version 423,2013-03-12 16:26:00,
2013-03-12 11:28:00,59.8,28.8,30.06,North,-999,-999.0,-999.0,31,-99.99,,,-99.99,WSDL version 423,2013-03-12 16:28:00,
2013-03-12 11:29:00,59.6,28.7,30.06,North,-999,-999.0,-999.0,31,-99.99,,,-99.99,WSDL version 423,2013-03-12 16:29:00,
2013-03-12 11:30:00,59.5,28.7,30.06,North,-999,-999.0,-999.0,31,-99.99,,,-99.99,WSDL version 423,2013-03-12 16:30:00,
2013-03-12 11:34:00,59.3,28.1,30.06,North,-999,-999.0,-999.0,31,-99.99,,,-99.99,WSDL version 423,2013-03-12 16:34:00,
2013-03-12 11:56:00,60.1,24.8,30.03,North,0,0.0,1.3,25,-99.99,,,-99.99,WSDL version 423,2013-03-12 16:56:00,
2013-03-12 11:57:00,60.2,24.3,30.03,North,0,0.0,1.3,25,-99.99,,,-99.99,WSDL version 423,2013-03-12 16:57:00,
2013-03-12 11:58:00,60.1,24.1,30.03,North,-999,-999.0,-999.0,25,-99.99,,,-99.99,WSDL version 423,2013-03-12 16:58:00,
2013-03-12 12:02:00,60.5,25.5,30.06,North,-999,-999.0,-999.0,28,-99.99,,,-99.99,WSDL version 423,2013-03-12 17:02:00,
2013-03-12 12:03:00,60.7,25.4,30.06,North,-999,-999.0,-999.0,25,-99.99,,,-99.99,WSDL version 423,2013-03-12 17:03:00,
2013-03-12 12:07:00,61.0,24.9,30.06,North,-999,-999.0,-999.0,25,-99.99,,,-99.99,WSDL version 423,2013-03-12 17:07:00,
2013-03-12 12:08:00,61.0,24.9,30.06,North,-999,-999.0,-999.0,25,-99.99,,,-99.99,WSDL version 423,2013-03-12 17:08:00,
2013-03-12 12:11:00,61.4,25.3,30.06,North,0,0.0,2.5,25,-99.99,,,-99.99,WSDL version 423,2013-03-12 17:11:00,
2013-03-12 12:13:00,61.8,25.6,30.06,North,0,0.0,2.5,25,-99.99,,,-99.99,WSDL version 423,2013-03-12 17:13:00,
2013-03-12 12:14:00,61.9,25.7,30.06,North,-999,-999.0,-999.0,25,-99.99,,,-99.99,WSDL version 423,2013-03-12 17:14:00,
2013-03-12 12:16:00,62.0,25.8,30.06,North,-999,-999.0,-999.0,25,-99.99,,,-99.99,WSDL version 423,2013-03-12 17:16:00,
2013-03-12 12:17:00,62.1,25.9,30.06,North,-999,-999.0,-999.0,25,-99.99,,,-99.99,WSDL version 423,2013-03-12 17:17:00,
2013-03-12 12:18:00,62.2,26.0,30.06,North,-999,-999.0,-999.0,25,-99.99,,,-99.99,WSDL version 423,2013-03-12 17:18:00,
2013-03-12 12:21:00,62.4,26.1,30.06,North,-999,-999.0,-999.0,25,-99.99,,,-99.99,WSDL version 423,2013-03-12 17:21:00,
2013-03-12 12:23:00,62.1,25.9,30.06,North,-999,-999.0,-999.0,25,-99.99,,,-99.99,WSDL version 423,2013-03-12 17:23:00,
2013-03-12 12:27:00,61.9,25.7,30.06,North,-999,-999.0,-999.0,25,-99.99,,,-99.99,WSDL version 423,2013-03-12 17:27:00,
2013-03-12 12:28:00,61.9,25.7,30.06,North,-999,-999.0,-999.0,25,-99.99,,,-99.99,WSDL version 423,2013-03-12 17:28:00,
2013-03-12 12:29:00,61.9,25.7,30.06,North,-999,-999.0,-999.0,25,-99.99,,,-99.99,WSDL version 423,2013-03-12 17:29:00,
2013-03-12 12:30:00,61.7,24.9,30.06,North,-999,-999.0,-999.0,23,-99.99,,,-99.99,WSDL version 423,2013-03-12 17:30:00,
2013-03-12 12:34:00,61.6,23.8,30.06,North,-999,-999.0,-999.0,23,-99.99,,,-99.99,WSDL version 423,2013-03-12 17:34:00,
2013-03-12 12:36:00,61.7,23.5,30.06,North,-999,-999.0,-999.0,23,-99.99,,,-99.99,WSDL version 423,2013-03-12 17:36:00,
2013-03-12 12:41:00,62.4,24.9,30.06,North,-999,-999.0,-999.0,23,-99.99,,,-99.99,WSDL version 423,2013-03-12 17:41:00,
2013-03-12 12:44:00,62.5,24.2,30.06,North,-999,-999.0,-999.0,23,-99.99,,,-99.99,WSDL version 423,2013-03-12 17:44:00,
2013-03-12 12:45:00,62.6,24.7,30.03,North,-999,-999.0,-999.0,25,-99.99,,,-99.99,WSDL version 423,2013-03-12 17:45:00,
2013-03-12 12:47:00,62.7,25.4,30.03,North,-999,-999.0,-999.0,25,-99.99,,,-99.99,WSDL version 423,2013-03-12 17:47:00,
2013-03-12 12:50:00,62.8,25.9,30.03,North,-999,-999.0,-999.0,25,-99.99,,,-99.99,WSDL version 423,2013-03-12 17:50:00,
2013-03-12 12:52:00,62.5,25.0,30.03,North,-999,-999.0,-999.0,23,-99.99,,,-99.99,WSDL version 423,2013-03-12 17:52:00,
2013-03-12 12:54:00,62.2,24.4,30.03,North,-999,-999.0,-999.0,23,-99.99,,,-99.99,WSDL version 423,2013-03-12 17:54:00,
2013-03-12 12:55:00,62.1,23.9,30.03,North,-999,-999.0,-999.0,23,-99.99,,,-99.99,WSDL version 423,2013-03-12 17:55:00,
2013-03-12 12:58:00,62.0,23.8,30.03,North,-999,-999.0,-999.0,23,-99.99,,,-99.99,WSDL version 423,2013-03-12 17:58:00,
2013-03-12 13:02:00,62.7,24.4,30.06,North,-999,-999.0,-999.0,23,-99.99,,,-99.99,WSDL version 423,2013-03-12 18:02:00,
2013-03-12 13:03:00,62.9,24.6,30.06,North,-999,-999.0,-999.0,23,-99.99,,,-99.99,WSDL version 423,2013-03-12 18:03:00,
2013-03-12 13:05:00,62.9,24.6,30.06,North,-999,-999.0,-999.0,23,-99.99,,,-99.99,WSDL version 423,2013-03-12 18:05:00,
2013-03-12 13:06:00,62.7,24.4,30.06,North,-999,-999.0,-999.0,23,-99.99,,,-99.99,WSDL version 423,2013-03-12 18:06:00,
2013-03-12 13:09:00,62.3,24.1,30.06,North,-999,-999.0,-999.0,23,-99.99,,,-99.99,WSDL version 423,2013-03-12 18:09:00,
2013-03-12 13:11:00,62.4,24.1,30.06,North,-999,-999.0,-999.0,23,-99.99,,,-99.99,WSDL version 423,2013-03-12 18:11:00,
2013-03-12 13:14:00,62.8,24.5,30.06,North,-999,-999.0,-999.0,23,-99.99,,,-99.99,WSDL version 423,2013-03-12 18:14:00,
2013-03-12 13:18:00,62.9,24.5,30.03,North,-999,-999.0,-999.0,23,-99.99,,,-99.99,WSDL version 423,2013-03-12 18:18:00,
2013-03-12 13:19:00,62.9,24.3,30.03,North,-999,-999.0,-999.0,22,-99.99,,,-99.99,WSDL version 423,2013-03-12 18:19:00,
2013-03-12 13:22:00,62.6,24.0,30.03,North,-999,-999.0,-999.0,23,-99.99,,,-99.99,WSDL version 423,2013-03-12 18:22:00,
2013-03-12 13:23:00,62.6,24.1,30.03,North,-999,-999.0,-999.0,23,-99.99,,,-99.99,WSDL version 423,2013-03-12 18:23:00,
2013-03-12 13:26:00,62.3,24.1,30.03,North,-999,-999.0,-999.0,23,-99.99,,,-99.99,WSDL version 423,2013-03-12 18:26:00,
2013-03-12 13:27:00,62.5,24.2,30.03,North,-999,-999.0,-999.0,23,-99.99,,,-99.99,WSDL version 423,2013-03-12 18:27:00,
2013-03-12 13:33:00,63.2,24.4,30.03,North,-999,-999.0,-999.0,23,-99.99,,,-99.99,WSDL version 423,2013-03-12 18:33:00,
2013-03-12 13:35:00,62.9,24.3,30.03,North,-999,-999.0,-999.0,23,-99.99,,,-99.99,WSDL version 423,2013-03-12 18:35:00,
2013-03-12 13:36:00,62.6,24.3,30.03,North,-999,-999.0,-999.0,23,-99.99,,,-99.99,WSDL version 423,2013-03-12 18:36:00,
2013-03-12 13:39:00,62.7,24.4,30.03,North,-999,-999.0,-999.0,23,-99.99,,,-99.99,WSDL version 423,2013-03-12 18:39:00,
2013-03-12 13:40:00,62.7,24.4,30.03,North,-999,-999.0,-999.0,23,-99.99,,,-99.99,WSDL version 423,2013-03-12 18:40:00,
2013-03-12 13:42:00,62.8,24.4,30.03,North,-999,-999.0,-999.0,23,-99.99,,,-99.99,WSDL version 423,2013-03-12 18:42:00,
2013-03-12 13:46:00,62.6,24.3,30.03,North,0,0.0,1.1,23,-99.99,,,-99.99,WSDL version 423,2013-03-12 18:46:00,
2013-03-12 13:48:00,62.7,24.4,30.03,North,0,0.0,1.1,23,-99.99,,,-99.99,WSDL version 423,2013-03-12 18:48:00,
2013-03-12 13:52:00,63.3,24.7,30.03,North,-999,-999.0,-999.0,22,-99.99,,,-99.99,WSDL version 423,2013-03-12 18:52:00,
2013-03-12 13:53:00,63.3,24.7,30.03,North,-999,-999.0,-999.0,23,-99.99,,,-99.99,WSDL version 423,2013-03-12 18:53:00,
2013-03-12 13:55:00,63.3,24.1,30.03,NW,315,2.5,2.7,23,-99.99,,,-99.99,WSDL version 423,2013-03-12 18:55:00,
2013-03-12 13:59:00,-999.0,-99.9,30.03,North,-999,-999.0,-999.0,-999,-99.99,,,-99.99,WSDL version 423,2013-03-12 18:59:00,
2013-03-12 14:04:00,-999.0,-99.9,30.03,North,-999,-999.0,-999.0,-999,-99.99,,,-99.99,WSDL version 423,2013-03-12 19:04:00,
2013-03-12 14:05:00,62.9,24.6,30.03,North,-999,-999.0,-999.0,23,-99.99,,,-99.99,WSDL version 423,2013-03-12 19:05:00,
2013-03-12 14:09:00,62.7,24.4,30.03,North,-999,-999.0,-999.0,23,-99.99,,,-99.99,WSDL version 423,2013-03-12 19:09:00,
2013-03-12 14:10:00,62.6,24.3,30.03,NW,315,2.0,2.0,23,-99.99,,,-99.99,WSDL version 423,2013-03-12 19:10:00,
2013-03-12 14:11:00,62.7,24.8,30.03,North,0,0.0,1.6,25,-99.99,,,-99.99,WSDL version 423,2013-03-12 19:11:00,
2013-03-12 14:15:00,62.7,24.9,30.03,NW,326,1.1,3.6,23,-99.99,,,-99.99,WSDL version 423,2013-03-12 19:15:00,
2013-03-12 14:16:00,62.4,24.2,30.03,NNW,330,1.1,5.4,23,-99.99,,,-99.99,WSDL version 423,2013-03-12 19:16:00,
2013-03-12 14:20:00,62.3,24.0,30.03,WNW,284,2.1,5.4,23,-99.99,,,-99.99,WSDL version 423,2013-03-12 19:20:00,
2013-03-12 14:21:00,62.4,24.2,30.03,West,281,1.7,5.4,23,-99.99,,,-99.99,WSDL version 423,2013-03-12 19:21:00,
2013-03-12 14:22:00,62.5,24.3,30.03,West,266,1.6,5.4,23,-99.99,,,-99.99,WSDL version 423,2013-03-12 19:22:00,
2013-03-12 14:25:00,62.8,24.5,30.03,NW,308,2.2,5.4,23,-99.99,,,-99.99,WSDL version 423,2013-03-12 19:25:00,
2013-03-12 14:27:00,62.9,24.5,30.03,North,0,0.0,4.3,23,-99.99,,,-99.99,WSDL version 423,2013-03-12 19:27:00,
2013-03-12 14:32:00,62.9,24.9,30.03,SW,233,4.6,6.5,23,-99.99,,,-99.99,WSDL version 423,2013-03-12 19:32:00,
2013-03-12 14:33:00,62.7,24.4,30.03,WSW,242,4.0,6.5,23,-99.99,,,-99.99,WSDL version 423,2013-03-12 19:33:00,
2013-03-12 14:37:00,62.2,23.9,30.03,SW,214,3.1,6.5,23,-99.99,,,-99.99,WSDL version 423,2013-03-12 19:37:00,
2013-03-12 14:39:00,62.2,24.0,30.03,WNW,293,2.5,6.3,23,-99.99,,,-99.99,WSDL version 423,2013-03-12 19:39:00,
2013-03-12 14:42:00,62.3,24.0,30.03,West,270,2.0,5.8,23,-99.99,,,-99.99,WSDL version 423,2013-03-12 19:42:00,
2013-03-12 14:43:00,62.3,24.0,30.03,WNW,293,2.5,3.4,23,-99.99,,,-99.99,WSDL version 423,2013-03-12 19:43:00,
2013-03-12 14:47:00,62.3,24.0,30.03,West,278,2.9,4.9,23,-99.99,,,-99.99,WSDL version 423,2013-03-12 19:47:00,
2013-03-12 14:48:00,62.3,24.1,30.03,WNW,293,2.3,4.9,23,-99.99,,,-99.99,WSDL version 423,2013-03-12 19:48:00,
2013-03-12 14:52:00,62.3,24.1,30.03,WNW,300,2.4,4.9,23,-99.99,,,-99.99,WSDL version 423,2013-03-12 19:52:00,
2013-03-12 14:54:00,62.0,23.8,30.03,North,9,2.9,4.7,23,-99.99,,,-99.99,WSDL version 423,2013-03-12 19:54:00,
2013-03-12 14:56:00,62.0,23.8,30.03,WNW,302,1.7,4.7,23,-99.99,,,-99.99,WSDL version 423,2013-03-12 19:56:00,
2013-03-12 14:57:00,62.0,23.8,30.03,WNW,296,1.9,4.7,23,-99.99,,,-99.99,WSDL version 423,2013-03-12 19:57:00,
2013-03-12 14:59:00,62.1,23.9,30.03,SSW,203,1.3,4.7,23,-99.99,,,-99.99,WSDL version 423,2013-03-12 19:59:00,
2013-03-12 15:00:00,62.0,23.8,30.00,SSW,203,2.3,4.7,23,-99.99,,,-99.99,WSDL version 423,2013-03-12 20:00:00,
2013-03-12 15:05:00,62.0,23.8,30.00,WNW,293,3.4,4.3,23,-99.99,,,-99.99,WSDL version 423,2013-03-12 20:05:00,
2013-03-12 15:11:00,62.3,24.0,30.00,West,259,2.1,3.4,23,-99.99,,,-99.99,WSDL version 423,2013-03-12 20:11:00,
2013-03-12 15:13:00,62.3,24.1,30.00,SW,236,1.2,3.4,23,-99.99,,,-99.99,WSDL version 423,2013-03-12 20:13:00,
2013-03-12 15:14:00,62.3,24.1,30.00,WSW,248,2.0,3.4,23,-99.99,,,-99.99,WSDL version 423,2013-03-12 20:14:00,
2013-03-12 15:15:00,62.4,24.1,30.00,WSW,242,2.5,4.9,23,-99.99,,,-99.99,WSDL version 423,2013-03-12 20:15:00,
2013-03-12 15:20:00,62.4,24.1,30.00,NW,315,1.1,4.9,23,-99.99,,,-99.99,WSDL version 423,2013-03-12 20:20:00,
2013-03-12 15:22:00,62.3,24.0,30.00,NNE,23,2.8,4.9,23,-99.99,,,-99.99,WSDL version 423,2013-03-12 20:22:00,
2013-03-12 15:25:00,62.2,23.9,30.00,WNW,293,0.4,3.4,23,-99.99,,,-99.99,WSDL version 423,2013-03-12 20:25:00,
2013-03-12 15:26:00,62.3,24.0,30.00,West,270,1.3,3.4,23,-99.99,,,-99.99,WSDL version 423,2013-03-12 20:26:00,
2013-03-12 15:28:00,62.4,24.1,30.00,West,281,2.3,3.4,23,-99.99,,,-99.99,WSDL version 423,2013-03-12 20:28:00,
2013-03-12 15:31:00,62.3,24.1,30.00,North,0,0.0,3.1,23,-99.99,,,-99.99,WSDL version 423,2013-03-12 20:31:00,
2013-03-12 15:34:00,62.3,25.1,30.00,North,-999,-999.0,-999.0,25,-99.99,,,-99.99,WSDL version 423,2013-03-12 20:34:00,
2013-03-12 15:37:00,62.4,25.8,30.00,North,-999,-999.0,-999.0,23,-99.99,,,-99.99,WSDL version 423,2013-03-12 20:37:00,
2013-03-12 15:39:00,62.1,24.9,30.00,North,-999,-999.0,-999.0,24,-99.99,,,-99.99,WSDL version 423,2013-03-12 20:39:00,
2013-03-12 15:42:00,61.7,23.9,30.00,North,-999,-999.0,-999.0,23,-99.99,,,-99.99,WSDL version 423,2013-03-12 20:42:00,
2013-03-12 15:47:00,61.4,23.3,30.00,North,-999,-999.0,-999.0,23,-99.99,,,-99.99,WSDL version 423,2013-03-12 20:47:00,
2013-03-12 15:52:00,61.0,22.9,30.00,WSW,248,3.8,3.8,23,-99.99,,,-99.99,WSDL version 423,2013-03-12 20:52:00,
2013-03-12 15:54:00,60.9,22.8,30.00,WNW,293,2.0,2.9,23,-99.99,,,-99.99,WSDL version 423,2013-03-12 20:54:00,
2013-03-12 15:55:00,60.8,22.8,30.00,North,0,0.0,2.9,23,-99.99,,,-99.99,WSDL version 423,2013-03-12 20:55:00,
2013-03-12 15:59:00,61.0,23.0,30.00,North,-999,-999.0,-999.0,23,-99.99,,,-99.99,WSDL version 423,2013-03-12 20:59:00,
2013-03-12 16:01:00,61.1,23.0,30.00,North,-999,-999.0,-999.0,23,-99.99,,,-99.99,WSDL version 423,2013-03-12 21:01:00,
2013-03-12 16:04:00,61.2,23.1,30.00,North,-999,-999.0,-999.0,23,-99.99,,,-99.99,WSDL version 423,2013-03-12 21:04:00,
2013-03-12 16:06:00,61.3,23.2,30.00,North,-999,-999.0,-999.0,23,-99.99,,,-99.99,WSDL version 423,2013-03-12 21:06:00,
2013-03-12 16:09:00,61.4,23.3,30.00,North,-999,-999.0,-999.0,23,-99.99,,,-99.99,WSDL version 423,2013-03-12 21:09:00,
2013-03-12 16:14:00,60.6,22.6,30.00,North,-999,-999.0,-999.0,23,-99.99,,,-99.99,WSDL version 423,2013-03-12 21:14:00,
2013-03-12 16:16:00,60.5,22.5,30.00,North,-999,-999.0,-999.0,23,-99.99,,,-99.99,WSDL version 423,2013-03-12 21:16:00,
2013-03-12 16:19:00,60.5,22.5,30.00,North,-999,-999.0,-999.0,23,-99.99,,,-99.99,WSDL version 423,2013-03-12 21:19:00,
2013-03-12 16:21:00,60.6,23.0,30.00,North,-999,-999.0,-999.0,25,-99.99,,,-99.99,WSDL version 423,2013-03-12 21:21:00,
2013-03-12 16:24:00,60.7,23.1,30.00,North,-999,-999.0,-999.0,23,-99.99,,,-99.99,WSDL version 423,2013-03-12 21:24:00,
2013-03-12 16:30:00,60.7,22.7,30.00,North,0,0.0,2.0,23,-99.99,,,-99.99,WSDL version 423,2013-03-12 21:30:00,
2013-03-12 16:32:00,60.6,22.6,30.00,West,270,0.6,2.0,23,-99.99,,,-99.99,WSDL version 423,2013-03-12 21:32:00,
2013-03-12 16:35:00,60.4,22.4,30.00,North,0,0.0,3.1,23,-99.99,,,-99.99,WSDL version 423,2013-03-12 21:35:00,
2013-03-12 16:37:00,60.2,22.3,30.00,North,0,0.0,3.1,23,-99.99,,,-99.99,WSDL version 423,2013-03-12 21:37:00,
2013-03-12 16:42:00,59.9,22.0,30.00,North,0,0.0,4.3,23,-99.99,,,-99.99,WSDL version 423,2013-03-12 21:42:00,
2013-03-12 16:43:00,59.8,22.0,30.00,North,0,0.0,4.3,23,-99.99,,,-99.99,WSDL version 423,2013-03-12 21:43:00,
2013-03-12 16:48:00,59.4,21.6,30.00,West,270,2.7,4.3,23,-99.99,,,-99.99,WSDL version 423,2013-03-12 21:48:00,
2013-03-12 16:51:00,59.4,21.6,30.00,North,0,0.0,4.0,23,-99.99,,,-99.99,WSDL version 423,2013-03-12 21:51:00,
2013-03-12 16:53:00,59.5,21.7,30.00,North,-999,-999.0,-999.0,23,-99.99,,,-99.99,WSDL version 423,2013-03-12 21:53:00,
2013-03-12 16:54:00,59.4,21.6,30.00,NW,315,2.2,4.0,23,-99.99,,,-99.99,WSDL version 423,2013-03-12 21:54:00,
2013-03-12 16:56:00,59.4,21.6,30.00,North,0,0.0,4.0,23,-99.99,,,-99.99,WSDL version 423,2013-03-12 21:56:00,
2013-03-12 16:59:00,59.5,22.0,30.00,North,-999,-999.0,-999.0,23,-99.99,,,-99.99,WSDL version 423,2013-03-12 21:59:00,
2013-03-12 17:01:00,59.5,22.1,30.00,South,180,3.6,4.3,23,-99.99,,,-99.99,WSDL version 423,2013-03-12 22:01:00,
2013-03-12 17:04:00,59.3,21.5,30.00,West,259,3.5,4.3,23,-99.99,,,-99.99,WSDL version 423,2013-03-12 22:04:00,
2013-03-12 17:07:00,59.0,21.3,30.00,North,0,0.0,4.3,23,-99.99,,,-99.99,WSDL version 423,2013-03-12 22:07:00,
2013-03-12 17:09:00,58.8,21.1,30.00,North,-999,-999.0,-999.0,23,-99.99,,,-99.99,WSDL version 423,2013-03-12 22:09:00,
2013-03-12 17:13:00,58.6,20.9,30.00,North,-999,-999.0,-999.0,23,-99.99,,,-99.99,WSDL version 423,2013-03-12 22:13:00,
2013-03-12 17:14:00,58.6,20.9,30.00,North,-999,-999.0,-999.0,23,-99.99,,,-99.99,WSDL version 423,2013-03-12 22:14:00,
2013-03-12 17:19:00,58.5,20.9,30.00,North,0,0.0,3.8,23,-99.99,,,-99.99,WSDL version 423,2013-03-12 22:19:00,
2013-03-12 17:21:00,58.6,20.9,30.00,North,-999,-999.0,-999.0,23,-99.99,,,-99.99,WSDL version 423,2013-03-12 22:21:00,
2013-03-12 17:24:00,58.4,20.8,30.00,North,-999,-999.0,-999.0,23,-99.99,,,-99.99,WSDL version 423,2013-03-12 22:24:00,
2013-03-12 17:26:00,58.4,20.8,30.00,North,-999,-999.0,-999.0,23,-99.99,,,-99.99,WSDL version 423,2013-03-12 22:26:00,
2013-03-12 17:29:00,58.5,20.8,30.00,North,-999,-999.0,-999.0,23,-99.99,,,-99.99,WSDL version 423,2013-03-12 22:29:00,
2013-03-12 17:34:00,58.9,21.2,30.00,North,-999,-999.0,-999.0,23,-99.99,,,-99.99,WSDL version 423,2013-03-12 22:34:00,
2013-03-12 17:35:00,58.9,21.2,30.00,North,-999,-999.0,-999.0,23,-99.99,,,-99.99,WSDL version 423,2013-03-12 22:35:00,
2013-03-12 17:36:00,58.9,21.2,30.00,North,-999,-999.0,-999.0,23,-99.99,,,-99.99,WSDL version 423,2013-03-12 22:36:00,
2013-03-12 17:39:00,58.5,20.9,30.00,North,0,0.0,6.3,23,-99.99,,,-99.99,WSDL version 423,2013-03-12 22:39:00,
2013-03-12 17:41:00,58.1,20.8,30.00,North,0,0.0,6.3,24,-99.99,,,-99.99,WSDL version 423,2013-03-12 22:41:00,
2013-03-12 17:44:00,57.5,20.9,30.00,WSW,248,2.7,6.3,24,-99.99,,,-99.99,WSDL version 423,2013-03-12 22:44:00,
2013-03-12 17:49:00,57.0,20.6,30.00,North,0,0.0,3.4,24,-99.99,,,-99.99,WSDL version 423,2013-03-12 22:49:00,
2013-03-12 17:50:00,56.9,20.5,30.00,North,0,0.0,3.4,24,-99.99,,,-99.99,WSDL version 423,2013-03-12 22:50:00,
2013-03-12 17:51:00,56.9,20.5,30.00,North,0,0.0,3.4,24,-99.99,,,-99.99,WSDL version 423,2013-03-12 22:51:00,
2013-03-12 17:52:00,56.8,20.4,30.00,North,-999,-999.0,-999.0,24,-99.99,,,-99.99,WSDL version 423,2013-03-12 22:52:00,
2013-03-12 17:55:00,56.7,20.3,30.00,North,0,0.0,2.7,24,-99.99,,,-99.99,WSDL version 423,2013-03-12 22:55:00,
2013-03-12 17:56:00,56.6,20.2,30.00,North,0,0.0,2.7,24,-99.99,,,-99.99,WSDL version 423,2013-03-12 22:56:00,
2013-03-12 18:02:00,55.7,19.4,30.00,ESE,113,2.2,2.2,24,-99.99,,,-99.99,WSDL version 423,2013-03-12 23:02:00,
2013-03-12 18:07:00,55.1,18.9,30.00,North,-999,-999.0,-999.0,24,-99.99,,,-99.99,WSDL version 423,2013-03-12 23:07:00,
2013-03-12 18:12:00,54.6,18.6,30.00,NNW,338,2.5,5.4,24,-99.99,,,-99.99,WSDL version 423,2013-03-12 23:12:00,
2013-03-12 18:13:00,54.6,18.5,30.00,North,0,0.0,5.4,24,-99.99,,,-99.99,WSDL version 423,2013-03-12 23:13:00,
2013-03-12 18:18:00,54.2,18.6,30.03,North,0,0.0,3.8,25,-99.99,,,-99.99,WSDL version 423,2013-03-12 23:18:00,
2013-03-12 18:19:00,54.2,18.7,30.03,North,0,0.0,2.9,25,-99.99,,,-99.99,WSDL version 423,2013-03-12 23:19:00,
2013-03-12 18:20:00,54.2,18.8,30.03,North,-999,-999.0,-999.0,25,-99.99,,,-99.99,WSDL version 423,2013-03-12 23:20:00,
2013-03-12 18:22:00,54.1,19.1,30.03,SSW,203,2.5,2.7,25,-99.99,,,-99.99,WSDL version 423,2013-03-12 23:22:00,
2013-03-12 18:24:00,54.0,19.0,30.03,WSW,248,1.6,5.6,25,-99.99,,,-99.99,WSDL version 423,2013-03-12 23:24:00,
2013-03-12 18:25:00,53.9,18.9,30.03,WSW,248,1.6,5.6,25,-99.99,,,-99.99,WSDL version 423,2013-03-12 23:25:00,
2013-03-12 18:26:00,53.8,18.8,30.03,North,0,0.0,5.6,25,-99.99,,,-99.99,WSDL version 423,2013-03-12 23:26:00,
2013-03-12 18:31:00,53.6,18.7,30.00,North,-999,-999.0,-999.0,25,-99.99,,,-99.99,WSDL version 423,2013-03-12 23:31:00,
2013-03-12 18:32:00,53.5,18.6,30.00,North,-999,-999.0,-999.0,25,-99.99,,,-99.99,WSDL version 423,2013-03-12 23:32:00,
2013-03-12 18:36:00,53.4,18.4,30.00,North,-999,-999.0,-999.0,25,-99.99,,,-99.99,WSDL version 423,2013-03-12 23:36:00,
2013-03-12 18:38:00,53.3,18.4,30.00,North,-999,-999.0,-999.0,25,-99.99,,,-99.99,WSDL version 423,2013-03-12 23:38:00,
2013-03-12 18:41:00,53.1,18.5,30.00,North,-999,-999.0,-999.0,26,-99.99,,,-99.99,WSDL version 423,2013-03-12 23:41:00,
2013-03-12 18:44:00,53.0,19.0,30.00,North,-999,-999.0,-999.0,27,-99.99,,,-99.99,WSDL version 423,2013-03-12 23:44:00,
2013-03-12 18:45:00,52.9,19.5,30.00,North,-999,-999.0,-999.0,27,-99.99,,,-99.99,WSDL version 423,2013-03-12 23:45:00,
2013-03-12 18:46:00,52.9,19.5,30.00,North,-999,-999.0,-999.0,27,-99.99,,,-99.99,WSDL version 423,2013-03-12 23:46:00,
2013-03-12 18:49:00,52.8,19.8,30.00,North,-999,-999.0,-999.0,27,-99.99,,,-99.99,WSDL version 423,2013-03-12 23:49:00,
2013-03-12 18:50:00,52.8,19.7,30.00,North,-999,-999.0,-999.0,27,-99.99,,,-99.99,WSDL version 423,2013-03-12 23:50:00,
2013-03-12 18:52:00,52.7,19.7,30.00,North,-999,-999.0,-999.0,27,-99.99,,,-99.99,WSDL version 423,2013-03-12 23:52:00,
2013-03-12 18:57:00,52.4,19.4,30.00,North,0,0.0,0.0,27,-99.99,,,-99.99,WSDL version 423,2013-03-12 23:57:00,
2013-03-12 18:58:00,52.4,19.4,30.00,North,0,0.0,0.0,27,-99.99,,,-99.99,WSDL version 423,2013-03-12 23:58:00,
2013-03-12 19:02:00,52.1,19.2,30.03,North,-999,-999.0,-999.0,27,-99.99,,,-99.99,WSDL version 423,2013-03-13 00:02:00,
2013-03-12 19:03:00,52.0,19.1,30.03,North,-999,-999.0,-999.0,27,-99.99,,,-99.99,WSDL version 423,2013-03-13 00:03:00,
2013-03-12 19:06:00,51.7,18.8,30.03,North,-999,-999.0,-999.0,27,-99.99,,,-99.99,WSDL version 423,2013-03-13 00:06:00,
2013-03-12 19:07:00,51.7,18.8,30.03,North,-999,-999.0,-999.0,27,-99.99,,,-99.99,WSDL version 423,2013-03-13 00:07:00,
2013-03-12 19:09:00,51.5,18.6,30.03,North,-999,-999.0,-999.0,27,-99.99,,,-99.99,WSDL version 423,2013-03-13 00:09:00,
2013-03-12 19:14:00,51.3,18.5,30.03,North,-999,-999.0,-999.0,27,-99.99,,,-99.99,WSDL version 423,2013-03-13 00:14:00,
2013-03-12 19:15:00,51.3,18.4,30.00,SSW,203,0.0,0.0,27,-99.99,,,-99.99,WSDL version 423,2013-03-13 00:15:00,
2013-03-12 19:16:00,51.2,18.4,30.00,SSW,203,0.0,0.0,27,-99.99,,,-99.99,WSDL version 423,2013-03-13 00:16:00,
2013-03-12 19:20:00,51.1,18.3,30.00,South,180,0.0,0.0,27,-99.99,,,-99.99,WSDL version 423,2013-03-13 00:20:00,
2013-03-12 19:21:00,51.1,18.3,30.00,South,180,0.0,0.0,27,-99.99,,,-99.99,WSDL version 423,2013-03-13 00:21:00,
2013-03-12 19:25:00,50.9,18.2,30.00,SSW,194,0.0,0.9,27,-99.99,,,-99.99,WSDL version 423,2013-03-13 00:25:00,
2013-03-12 19:31:00,50.9,20.6,30.00,North,0,0.0,0.9,30,-99.99,,,-99.99,WSDL version 423,2013-03-13 00:31:00,
2013-03-12 19:34:00,50.9,20.6,30.00,North,-999,-999.0,-999.0,30,-99.99,,,-99.99,WSDL version 423,2013-03-13 00:34:00,
2013-03-12 19:37:00,50.8,20.5,30.00,North,-999,-999.0,-999.0,30,-99.99,,,-99.99,WSDL version 423,2013-03-13 00:37:00,
2013-03-12 19:41:00,50.6,22.0,30.00,North,-999,-999.0,-999.0,33,-99.99,,,-99.99,WSDL version 423,2013-03-13 00:41:00,
2013-03-12 19:42:00,50.6,22.4,30.00,North,-999,-999.0,-999.0,33,-99.99,,,-99.99,WSDL version 423,2013-03-13 00:42:00,
2013-03-12 19:43:00,50.5,22.5,30.00,North,-999,-999.0,-999.0,33,-99.99,,,-99.99,WSDL version 423,2013-03-13 00:43:00,
2013-03-12 19:47:00,50.5,22.5,30.00,North,-999,-999.0,-999.0,33,-99.99,,,-99.99,WSDL version 423,2013-03-13 00:47:00,
2013-03-12 19:48:00,50.5,22.5,30.00,North,-999,-999.0,-999.0,33,-99.99,,,-99.99,WSDL version 423,2013-03-13 00:48:00,
2013-03-12 19:51:00,50.4,22.4,30.00,North,-999,-999.0,-999.0,33,-99.99,,,-99.99,WSDL version 423,2013-03-13 00:51:00,
2013-03-12 19:53:00,50.3,22.3,30.00,North,-999,-999.0,-999.0,33,-99.99,,,-99.99,WSDL version 423,2013-03-13 00:53:00,
2013-03-12 19:54:00,50.3,22.3,30.00,NW,315,0.9,0.0,33,-99.99,,,-99.99,WSDL version 423,2013-03-13 00:54:00,
2013-03-12 19:59:00,50.2,22.2,30.00,North,-999,-999.0,-999.0,33,-99.99,,,-99.99,WSDL version 423,2013-03-13 00:59:00,
2013-03-12 20:02:00,50.1,22.1,30.03,North,-999,-999.0,-999.0,33,-99.99,,,-99.99,WSDL version 423,2013-03-13 01:02:00,
2013-03-12 20:04:00,50.0,22.1,30.03,WSW,248,0.9,0.0,33,-99.99,,,-99.99,WSDL version 423,2013-03-13 01:04:00,
2013-03-12 20:09:00,50.0,22.0,30.03,North,0,0.0,0.0,33,-99.99,,,-99.99,WSDL version 423,2013-03-13 01:09:00,
2013-03-12 20:11:00,50.0,22.0,30.03,North,-999,-999.0,-999.0,33,-99.99,,,-99.99,WSDL version 423,2013-03-13 01:11:00,
2013-03-12 20:14:00,49.9,21.9,30.03,North,-999,-999.0,-999.0,33,-99.99,,,-99.99,WSDL version 423,2013-03-13 01:14:00,
2013-03-12 20:15:00,49.8,21.9,30.03,North,-999,-999.0,-999.0,33,-99.99,,,-99.99,WSDL version 423,2013-03-13 01:15:00,
2013-03-12 20:16:00,49.8,21.8,30.03,North,-999,-999.0,-999.0,33,-99.99,,,-99.99,WSDL version 423,2013-03-13 01:16:00,
2013-03-12 20:22:00,49.6,22.1,30.03,North,-999,-999.0,-999.0,34,-99.99,,,-99.99,WSDL version 423,2013-03-13 01:22:00,
2013-03-12 20:23:00,49.6,22.2,30.03,North,-999,-999.0,-999.0,34,-99.99,,,-99.99,WSDL version 423,2013-03-13 01:23:00,
2013-03-12 20:25:00,49.5,22.3,30.03,North,-999,-999.0,-999.0,34,-99.99,,,-99.99,WSDL version 423,2013-03-13 01:25:00,
2013-03-12 20:26:00,49.4,22.3,30.03,North,-999,-999.0,-999.0,34,-99.99,,,-99.99,WSDL version 423,2013-03-13 01:26:00,
2013-03-12 20:28:00,49.4,22.2,30.03,NW,315,0.0,1.3,34,-99.99,,,-99.99,WSDL version 423,2013-03-13 01:28:00,
2013-03-12 20:31:00,49.3,22.1,30.03,North,0,0.0,1.3,34,-99.99,,,-99.99,WSDL version 423,2013-03-13 01:31:00,
2013-03-12 20:33:00,49.2,22.0,30.03,North,-999,-999.0,-999.0,34,-99.99,,,-99.99,WSDL version 423,2013-03-13 01:33:00,
2013-03-12 20:36:00,49.0,21.9,30.03,North,-999,-999.0,-999.0,34,-99.99,,,-99.99,WSDL version 423,2013-03-13 01:36:00,
2013-03-12 20:37:00,49.0,21.9,30.03,North,-999,-999.0,-999.0,34,-99.99,,,-99.99,WSDL version 423,2013-03-13 01:37:00,
2013-03-12 20:40:00,48.8,22.0,30.03,North,-999,-999.0,-999.0,35,-99.99,,,-99.99,WSDL version 423,2013-03-13 01:40:00,
2013-03-12 20:42:00,48.8,22.2,30.03,North,-999,-999.0,-999.0,35,-99.99,,,-99.99,WSDL version 423,2013-03-13 01:42:00,
2013-03-12 20:46:00,48.7,22.3,30.03,North,-999,-999.0,-999.0,35,-99.99,,,-99.99,WSDL version 423,2013-03-13 01:46:00,
2013-03-12 20:48:00,48.7,22.3,30.03,SSE,158,0.0,0.0,35,-99.99,,,-99.99,WSDL version 423,2013-03-13 01:48:00,
2013-03-12 20:49:00,48.7,22.3,30.03,SSE,158,0.0,0.0,35,-99.99,,,-99.99,WSDL version 423,2013-03-13 01:49:00,
2013-03-12 20:51:00,48.7,22.3,30.03,SSE,158,0.0,0.0,35,-99.99,,,-99.99,WSDL version 423,2013-03-13 01:51:00,
2013-03-12 20:53:00,48.7,22.4,30.03,North,0,0.0,0.0,36,-99.99,,,-99.99,WSDL version 423,2013-03-13 01:53:00,
2013-03-12 20:59:00,48.7,22.5,30.03,North,-999,-999.0,-999.0,36,-99.99,,,-99.99,WSDL version 423,2013-03-13 01:59:00,
2013-03-12 21:01:00,48.7,22.7,30.03,ESE,118,0.0,0.0,36,-99.99,,,-99.99,WSDL version 423,2013-03-13 02:01:00,
2013-03-12 21:04:00,48.6,22.9,30.03,South,180,0.0,0.0,36,-99.99,,,-99.99,WSDL version 423,2013-03-13 02:04:00,
2013-03-12 21:06:00,48.6,22.8,30.03,South,180,0.0,0.0,36,-99.99,,,-99.99,WSDL version 423,2013-03-13 02:06:00,
2013-03-12 21:08:00,48.5,22.8,30.03,North,0,0.0,0.0,36,-99.99,,,-99.99,WSDL version 423,2013-03-13 02:08:00,
2013-03-12 21:09:00,48.5,22.8,30.03,North,0,0.0,0.0,36,-99.99,,,-99.99,WSDL version 423,2013-03-13 02:09:00,
2013-03-12 21:15:00,48.5,22.8,30.03,North,-999,-999.0,-999.0,36,-99.99,,,-99.99,WSDL version 423,2013-03-13 02:15:00,
2013-03-12 21:16:00,48.5,22.9,30.03,South,180,0.0,0.0,37,-99.99,,,-99.99,WSDL version 423,2013-03-13 02:16:00,
2013-03-12 21:20:00,48.7,23.5,30.03,North,0,0.0,0.0,37,-99.99,,,-99.99,WSDL version 423,2013-03-13 02:20:00,
2013-03-12 21:24:00,48.8,23.6,30.03,North,-999,-999.0,-999.0,37,-99.99,,,-99.99,WSDL version 423,2013-03-13 02:24:00,
2013-03-12 21:25:00,48.8,23.7,30.03,North,-999,-999.0,-999.0,37,-99.99,,,-99.99,WSDL version 423,2013-03-13 02:25:00,
2013-03-12 21:31:00,48.9,23.8,30.03,North,-999,-999.0,-999.0,37,-99.99,,,-99.99,WSDL version 423,2013-03-13 02:31:00,
2013-03-12 21:32:00,49.0,23.8,30.03,North,-999,-999.0,-999.0,37,-99.99,,,-99.99,WSDL version 423,2013-03-13 02:32:00,
2013-03-12 21:33:00,49.0,23.8,30.03,North,-999,-999.0,-999.0,37,-99.99,,,-99.99,WSDL version 423,2013-03-13 02:33:00,
2013-03-12 21:38:00,49.1,23.9,30.03,North,-999,-999.0,-999.0,37,-99.99,,,-99.99,WSDL version 423,2013-03-13 02:38:00,
2013-03-12 21:43:00,49.1,24.4,30.03,North,-999,-999.0,-999.0,38,-99.99,,,-99.99,WSDL version 423,2013-03-13 02:43:00,
2013-03-12 21:44:00,49.1,24.6,30.03,North,-999,-999.0,-999.0,40,-99.99,,,-99.99,WSDL version 423,2013-03-13 02:44:00,
2013-03-12 21:48:00,48.9,25.1,30.03,North,-999,-999.0,-999.0,39,-99.99,,,-99.99,WSDL version 423,2013-03-13 02:48:00,
2013-03-12 21:49:00,48.9,25.0,30.03,North,-999,-999.0,-999.0,39,-99.99,,,-99.99,WSDL version 423,2013-03-13 02:49:00,
2013-03-12 21:51:00,48.8,24.8,30.03,North,-999,-999.0,-999.0,39,-99.99,,,-99.99,WSDL version 423,2013-03-13 02:51:00,
2013-03-12 21:54:00,48.7,24.9,30.03,North,-999,-999.0,-999.0,40,-99.99,,,-99.99,WSDL version 423,2013-03-13 02:54:00,
2013-03-12 21:56:00,48.7,25.3,30.03,North,-999,-999.0,-999.0,41,-99.99,,,-99.99,WSDL version 423,2013-03-13 02:56:00,
2013-03-12 21:59:00,48.8,25.2,30.03,North,-999,-999.0,-999.0,39,-99.99,,,-99.99,WSDL version 423,2013-03-13 02:59:00,
2013-03-12 22:00:00,48.8,25.2,30.06,North,-999,-999.0,-999.0,39,-99.99,,,-99.99,WSDL version 423,2013-03-13 03:00:00,
2013-03-12 22:04:00,49.0,24.8,30.06,North,-999,-999.0,-999.0,38,-99.99,,,-99.99,WSDL version 423,2013-03-13 03:04:00,
2013-03-12 22:05:00,49.1,24.6,30.06,North,-999,-999.0,-999.0,37,-99.99,,,-99.99,WSDL version 423,2013-03-13 03:05:00,
2013-03-12 22:06:00,49.1,24.4,30.06,North,-999,-999.0,-999.0,37,-99.99,,,-99.99,WSDL version 423,2013-03-13 03:06:00,
2013-03-12 22:07:00,49.1,24.1,30.06,North,-999,-999.0,-999.0,36,-99.99,,,-99.99,WSDL version 423,2013-03-13 03:07:00,
2013-03-12 22:10:00,49.4,23.7,30.06,North,-999,-999.0,-999.0,36,-99.99,,,-99.99,WSDL version 423,2013-03-13 03:10:00,
2013-03-12 22:11:00,49.4,23.6,30.06,North,-999,-999.0,-999.0,36,-99.99,,,-99.99,WSDL version 423,2013-03-13 03:11:00,
2013-03-12 22:15:00,49.7,23.3,30.06,North,-999,-999.0,-999.0,35,-99.99,,,-99.99,WSDL version 423,2013-03-13 03:15:00,
2013-03-12 22:16:00,49.8,23.2,30.06,North,-999,-999.0,-999.0,35,-99.99,,,-99.99,WSDL version 423,2013-03-13 03:16:00,
2013-03-12 22:17:00,49.8,23.3,30.06,North,-999,-999.0,-999.0,35,-99.99,,,-99.99,WSDL version 423,2013-03-13 03:17:00,
2013-03-12 22:20:00,49.8,23.1,30.06,North,-999,-999.0,-999.0,34,-99.99,,,-99.99,WSDL version 423,2013-03-13 03:20:00,
2013-03-12 22:24:00,49.7,22.5,30.06,North,-999,-999.0,-999.0,34,-99.99,,,-99.99,WSDL version 423,2013-03-13 03:24:00,
2013-03-12 22:26:00,49.6,22.5,30.06,North,-999,-999.0,-999.0,34,-99.99,,,-99.99,WSDL version 423,2013-03-13 03:26:00,
2013-03-12 22:29:00,49.5,22.6,30.06,North,-999,-999.0,-999.0,34,-99.99,,,-99.99,WSDL version 423,2013-03-13 03:29:00,
2013-03-12 22:32:00,49.5,22.4,30.06,North,-999,-999.0,-999.0,34,-99.99,,,-99.99,WSDL version 423,2013-03-13 03:32:00,
2013-03-12 22:34:00,49.5,22.3,30.06,North,-999,-999.0,-999.0,34,-99.99,,,-99.99,WSDL version 423,2013-03-13 03:34:00,
2013-03-12 22:36:00,49.5,22.3,30.06,North,-999,-999.0,-999.0,34,-99.99,,,-99.99,WSDL version 423,2013-03-13 03:36:00,
2013-03-12 22:39:00,49.4,22.5,30.06,North,-999,-999.0,-999.0,35,-99.99,,,-99.99,WSDL version 423,2013-03-13 03:39:00,
2013-03-12 22:40:00,49.3,22.6,30.06,North,-999,-999.0,-999.0,35,-99.99,,,-99.99,WSDL version 423,2013-03-13 03:40:00,
2013-03-12 22:41:00,49.3,22.8,30.06,North,-999,-999.0,-999.0,35,-99.99,,,-99.99,WSDL version 423,2013-03-13 03:41:00,
2013-03-12 22:44:00,49.2,22.8,30.06,North,-999,-999.0,-999.0,35,-99.99,,,-99.99,WSDL version 423,2013-03-13 03:44:00,
2013-03-12 22:46:00,49.2,22.7,30.06,North,-999,-999.0,-999.0,35,-99.99,,,-99.99,WSDL version 423,2013-03-13 03:46:00,
2013-03-12 22:49:00,49.0,22.6,30.06,North,-999,-999.0,-999.0,35,-99.99,,,-99.99,WSDL version 423,2013-03-13 03:49:00,
2013-03-12 22:50:00,49.0,22.5,30.06,North,-999,-999.0,-999.0,35,-99.99,,,-99.99,WSDL version 423,2013-03-13 03:50:00,
2013-03-12 22:51:00,48.9,22.5,30.06,North,-999,-999.0,-999.0,35,-99.99,,,-99.99,WSDL version 423,2013-03-13 03:51:00,
2013-03-12 22:55:00,48.8,22.4,30.06,North,-999,-999.0,-999.0,35,-99.99,,,-99.99,WSDL version 423,2013-03-13 03:55:00,
2013-03-12 22:56:00,48.7,22.3,30.06,North,-999,-999.0,-999.0,35,-99.99,,,-99.99,WSDL version 423,2013-03-13 03:56:00,
2013-03-12 22:57:00,48.7,22.3,30.06,North,-999,-999.0,-999.0,35,-99.99,,,-99.99,WSDL version 423,2013-03-13 03:57:00,
2013-03-12 23:00:00,48.7,22.3,30.06,North,-999,-999.0,-999.0,35,-99.99,,,-99.99,WSDL version 423,2013-03-13 04:00:00,
2013-03-12 23:01:00,48.7,22.3,30.06,North,-999,-999.0,-999.0,35,-99.99,,,-99.99,WSDL version 423,2013-03-13 04:01:00,
2013-03-12 23:05:00,48.5,22.1,30.06,North,-999,-999.0,-999.0,35,-99.99,,,-99.99,WSDL version 423,2013-03-13 04:05:00,
2013-03-12 23:06:00,48.5,22.1,30.06,North,-999,-999.0,-999.0,35,-99.99,,,-99.99,WSDL version 423,2013-03-13 04:06:00,
2013-03-12 23:07:00,48.5,22.3,30.06,North,-999,-999.0,-999.0,36,-99.99,,,-99.99,WSDL version 423,2013-03-13 04:07:00,
2013-03-12 23:12:00,48.5,22.8,30.06,North,0,0.0,6.0,36,-99.99,,,-99.99,WSDL version 423,2013-03-13 04:12:00,
2013-03-12 23:16:00,48.4,22.2,30.09,North,-999,-999.0,-999.0,35,-99.99,,,-99.99,WSDL version 423,2013-03-13 04:16:00,
2013-03-12 23:17:00,48.4,22.1,30.09,North,-999,-999.0,-999.0,35,-99.99,,,-99.99,WSDL version 423,2013-03-13 04:17:00,
2013-03-12 23:18:00,48.4,22.0,30.09,North,-999,-999.0,-999.0,35,-99.99,,,-99.99,WSDL version 423,2013-03-13 04:18:00,
2013-03-12 23:19:00,48.4,22.0,30.09,North,-999,-999.0,-999.0,35,-99.99,,,-99.99,WSDL version 423,2013-03-13 04:19:00,
2013-03-12 23:22:00,48.3,22.0,30.09,North,-999,-999.0,-999.0,35,-99.99,,,-99.99,WSDL version 423,2013-03-13 04:22:00,
2013-03-12 23:24:00,48.3,21.9,30.09,North,-999,-999.0,-999.0,35,-99.99,,,-99.99,WSDL version 423,2013-03-13 04:24:00,
2013-03-12 23:25:00,48.2,21.9,30.09,North,-999,-999.0,-999.0,35,-99.99,,,-99.99,WSDL version 423,2013-03-13 04:25:00,
2013-03-12 23:26:00,48.2,21.8,30.09,North,-999,-999.0,-999.0,35,-99.99,,,-99.99,WSDL version 423,2013-03-13 04:26:00,
2013-03-12 23:27:00,48.2,21.8,30.09,North,-999,-999.0,-999.0,35,-99.99,,,-99.99,WSDL version 423,2013-03-13 04:27:00,
2013-03-12 23:30:00,48.1,21.7,30.09,North,-999,-999.0,-999.0,35,-99.99,,,-99.99,WSDL version 423,2013-03-13 04:30:00,
2013-03-12 23:32:00,48.0,21.7,30.09,North,-999,-999.0,-999.0,35,-99.99,,,-99.99,WSDL version 423,2013-03-13 04:32:00,
2013-03-12 23:35:00,48.0,21.7,30.09,North,-999,-999.0,-999.0,35,-99.99,,,-99.99,WSDL version 423,2013-03-13 04:35:00,
2013-03-12 23:37:00,48.0,21.7,30.09,North,-999,-999.0,-999.0,35,-99.99,,,-99.99,WSDL version 423,2013-03-13 04:37:00,
2013-03-12 23:40:00,48.0,21.7,30.09,North,-999,-999.0,-999.0,35,-99.99,,,-99.99,WSDL version 423,2013-03-13 04:40:00,
2013-03-12 23:42:00,47.9,21.6,30.09,North,-999,-999.0,-999.0,35,-99.99,,,-99.99,WSDL version 423,2013-03-13 04:42:00,
2013-03-12 23:46:00,47.8,21.5,30.09,North,-999,-999.0,-999.0,35,-99.99,,,-99.99,WSDL version 423,2013-03-13 04:46:00,
2013-03-12 23:47:00,47.8,21.5,30.09,North,-999,-999.0,-999.0,35,-99.99,,,-99.99,WSDL version 423,2013-03-13 04:47:00,
2013-03-12 23:51:00,47.6,21.3,30.09,North,-999,-999.0,-999.0,35,-99.99,,,-99.99,WSDL version 423,2013-03-13 04:51:00,
2013-03-12 23:55:00,47.4,21.4,30.09,North,-999,-999.0,-999.0,36,-99.99,,,-99.99,WSDL version 423,2013-03-13 04:55:00,
2013-03-12 23:56:00,47.4,21.5,30.09,North,-999,-999.0,-999.0,36,-99.99,,,-99.99,WSDL version 423,2013-03-13 04:56:00,
2013-03-12 23:57:00,47.3,21.6,30.09,North,-999,-999.0,-999.0,36,-99.99,,,-99.99,WSDL version 423,2013-03-13 04:57:00,